GFSSW_sfc_dewp_033.txt.gz
Dewpoint
53 53 53 53 53 53 54 54 54 55 55 55 55 55 56 57 57 51 44 37 44 60 69 53 46 46 62 62 62 62 58 53 55 52 50 56 54 56 59 59 60 60 62 64 65
53 53 53 53 53 53 53 54 54 54 54 55 55 55 56 57 52 46 50 59 60 63 44 41 44 42 54 59 60 60 58 56 55 53 53 55 55 53 58 58 60 62 64 64 64
53 52 53 53 53 53 53 53 53 53 54 54 54 55 55 55 47 37 60 60 62 67 39 30 42 42 50 55 55 57 54 54 52 51 56 54 54 59 57 58 61 61 63 63 63
52 53 53 53 53 53 53 54 53 54 54 54 55 54 55 51 30 31 68 67 61 53 38 29 33 41 46 51 52 51 53 54 51 51 50 50 52 54 54 59 61 62 62 62 62
53 54 55 55 54 54 54 55 54 53 54 55 56 54 52 44 37 35 69 69 54 47 33 26 31 40 41 48 49 47 53 50 48 50 50 50 50 52 56 60 61 61 62 61 61
54 55 55 54 54 54 54 54 54 53 53 56 57 53 49 38 39 36 48 55 47 38 30 27 32 38 43 45 47 46 50 49 51 49 50 49 47 54 57 59 59 61 61 61 61
55 54 54 54 54 54 54 53 53 52 53 57 57 53 46 34 35 36 42 46 39 33 26 27 33 32 42 45 48 46 43 50 50 48 48 52 51 52 58 59 58 60 61 61 61
54 54 54 54 54 53 53 52 52 52 53 57 57 53 47 41 41 38 37 42 34 32 27 28 33 31 32 41 44 44 42 40 48 49 48 47 46 48 54 57 57 58 59 60 60
54 53 53 53 53 52 51 51 53 55 54 55 54 52 42 46 40 39 38 37 37 34 32 29 30 28 28 35 37 39 39 36 36 40 41 38 41 48 51 54 56 57 57 58 59
53 53 53 52 52 51 51 51 52 54 56 53 51 48 44 29 35 37 36 29 33 32 35 31 31 27 29 31 32 37 37 35 34 36 40 37 35 50 50 52 58 59 57 57 57
53 52 52 51 51 50 48 40 22 32 29 19 20 30 22 36 34 36 34 32 21 31 35 36 32 28 28 30 32 37 37 34 34 35 37 37 35 48 56 60 60 61 61 57 57
52 52 51 51 51 49 46 21 18 19 15 17 19 20 21 22 26 30 35 30 19 28 33 35 33 33 32 30 30 32 34 35 33 30 34 35 33 50 54 54 58 59 57 57 56
52 51 51 50 49 44 33 19 18 17 16 16 16 16 18 17 19 25 30 30 18 25 31 34 35 36 35 30 28 29 31 32 32 30 27 31 33 48 51 51 53 55 56 59 55
52 51 50 49 40 35 28 20 17 17 18 13 11 14 15 17 15 23 28 28 25 22 31 35 36 36 35 32 30 28 31 32 31 30 26 24 30 36 46 48 50 53 57 57 57
51 51 49 49 42 36 32 17 17 19 8 8 19 22 18 13 10 12 24 26 25 22 30 33 36 36 34 33 32 30 29 29 30 29 25 25 27 30 41 45 49 53 57 59 61
51 50 49 42 40 37 26 19 19 17 9 8 19 16 14 15 19 10 19 26 25 23 26 31 38 36 35 33 32 32 30 24 28 26 21 21 23 26 33 37 45 50 56 58 52
49 48 48 42 36 31 31 21 14 10 16 17 16 13 13 20 24 24 12 22 22 19 20 28 29 36 32 30 29 28 23 17 15 18 17 18 21 23 30 37 37 46 53 53 53
48 48 47 40 39 35 24 22 15 13 16 18 15 12 15 20 23 26 27 17 27 19 25 26 23 28 33 27 21 22 19 14 13 13 13 15 15 21 28 31 36 41 50 51 56
48 42 39 37 39 28 22 18 13 17 14 11 10 10 14 17 23 27 29 29 23 22 21 24 23 27 29 28 23 19 15 14 13 19 15 14 13 16 17 22 25 35 38 50 54
45 41 39 37 27 25 23 22 15 13 14 15 13 14 13 21 25 26 29 33 38 35 27 19 20 26 28 30 23 19 17 13 12 14 13 14 13 14 15 17 23 29 34 42 53
41 37 29 24 24 23 18 15 12 10 18 16 15 14 11 26 27 25 28 34 38 36 34 32 19 16 24 26 26 16 18 14 15 17 16 19 18 17 17 21 26 26 35 36 45
39 34 35 28 21 22 15 14 22 13 24 22 23 11 16 18 23 23 31 36 38 35 30 33 30 17 18 23 24 20 17 16 14 16 17 16 17 28 26 21 26 26 33 38 43
39 37 36 31 21 21 21 18 15 26 26 22 22 20 15 27 29 32 32 33 37 34 30 37 30 21 17 18 20 19 17 17 19 23 20 17 20 28 33 22 30 30 32 37 46
40 33 34 33 30 27 24 21 22 24 25 23 20 18 23 25 27 31 30 30 34 32 43 38 31 29 22 19 22 19 19 17 19 17 17 20 20 26 32 36 37 35 41 39 48
37 34 37 32 32 32 30 26 24 24 26 21 21 23 22 23 19 28 27 27 27 35 34 31 28 32 32 28 26 24 19 19 17 20 19 18 26 30 35 39 42 44 42 44 46
38 39 39 37 36 30 31 29 25 25 23 21 20 21 21 21 25 24 24 24 28 30 28 27 28 32 34 30 27 26 20 20 18 19 22 19 20 32 38 42 39 41 41 39 46
45 41 41 38 33 30 30 30 29 28 27 24 21 19 22 23 27 23 20 19 22 24 26 26 26 30 31 33 32 30 29 20 20 20 20 22 24 35 38 37 37 39 38 37 37

GFSSW_sfc_dewp_039.txt.gz
Dewpoint
53 53 53 53 54 54 54 54 54 54 55 55 55 55 55 55 55 52 46 45 46 56 64 57 66 61 65 65 65 62 52 52 51 52 55 59 59 61 63 60 60 61 59 60 62
53 53 53 54 54 53 54 54 54 54 54 55 55 55 55 55 52 49 48 56 57 62 62 59 59 57 62 62 64 62 52 51 52 56 56 58 62 60 61 59 61 58 60 61 60
53 53 53 53 53 53 54 54 54 54 54 54 54 55 55 54 48 41 58 57 62 66 58 55 54 46 57 59 61 61 55 55 53 56 57 59 60 60 60 60 61 57 59 59 58
53 53 53 53 53 53 53 54 54 54 54 54 54 55 54 52 21 39 67 60 63 53 44 42 44 41 44 50 55 58 59 58 56 56 57 58 58 58 60 60 62 58 58 57 57
53 54 54 54 53 53 53 54 54 54 54 53 53 54 51 40 32 35 66 59 58 47 39 35 35 40 41 45 50 55 57 57 59 58 55 54 57 59 60 62 62 58 57 56 58
54 55 55 54 54 55 54 54 54 53 54 53 53 54 48 28 27 38 51 54 51 42 34 32 32 37 39 41 49 51 53 54 53 53 53 51 57 59 60 62 61 58 57 56 59
54 54 54 54 54 54 54 53 53 54 57 53 55 51 48 33 41 44 46 50 50 40 32 33 30 34 32 40 41 43 46 44 48 51 49 50 48 52 61 62 61 59 58 58 61
54 54 54 54 54 53 53 52 53 56 55 55 57 51 46 46 48 48 42 38 48 43 32 34 30 33 33 35 30 39 40 40 44 49 49 48 46 60 61 60 60 61 60 60 61
54 53 53 53 53 52 51 52 53 56 57 57 52 49 44 50 37 37 39 35 45 43 38 31 28 26 31 30 28 29 35 41 42 47 49 48 50 60 61 60 60 60 60 61 61
53 53 53 52 52 51 51 52 51 57 55 54 52 42 34 17 19 19 31 39 37 40 34 29 26 24 28 28 30 29 35 37 38 42 48 48 49 59 60 60 60 60 60 60 61
53 52 52 51 51 51 49 21 19 15 16 14 13 28 19 20 19 19 18 32 34 33 28 28 23 21 19 26 29 32 36 37 39 41 42 47 47 58 59 59 60 60 60 60 60
52 52 51 50 50 51 42 22 22 20 14 15 15 15 16 17 17 18 19 31 36 30 31 29 23 22 23 27 28 27 28 33 36 37 37 37 45 57 59 59 60 60 60 60 60
52 51 50 50 50 42 37 31 26 18 16 15 16 16 13 17 18 23 28 23 25 33 30 29 30 27 28 25 26 26 25 29 33 36 37 39 45 48 58 59 60 60 60 60 60
51 51 50 50 36 40 32 32 35 22 15 13 17 16 12 21 19 23 28 24 23 28 30 30 31 30 26 29 27 25 28 29 30 32 31 34 43 54 56 57 57 59 60 60 60
51 50 49 50 39 33 29 36 35 19 1 18 15 18 12 18 19 22 27 29 26 23 23 26 29 30 29 28 30 28 29 30 30 30 31 30 30 47 54 55 56 57 59 60 60
51 49 49 44 42 40 38 33 18 10 5 16 15 14 13 16 20 24 25 30 32 32 25 23 24 29 29 32 32 33 30 30 30 29 26 28 29 28 48 53 55 57 57 58 59
49 48 48 46 27 39 34 23 10 7 15 13 14 15 14 19 20 23 23 34 33 32 28 27 23 27 31 30 33 33 29 27 26 26 26 29 28 29 44 51 53 55 55 56 56
48 48 46 45 43 39 25 17 12 12 14 14 15 15 14 24 23 24 24 26 34 34 33 29 23 26 23 32 31 32 32 29 25 26 27 26 25 26 36 49 52 53 54 53 52
48 42 40 39 40 34 20 16 14 12 13 15 14 15 15 24 21 24 24 26 33 37 32 31 29 31 25 25 33 33 32 32 24 21 20 26 18 18 26 41 50 51 52 51 51
43 40 39 37 34 24 18 21 18 22 20 18 17 18 17 19 21 24 24 25 28 36 36 33 29 31 29 24 29 34 32 29 23 21 19 18 15 22 22 27 38 50 51 51 51
39 36 37 39 24 20 16 17 17 24 23 21 21 20 17 20 24 25 24 24 29 31 35 36 32 31 33 23 22 26 29 32 30 21 21 13 17 19 20 22 24 44 47 49 51
37 24 35 31 26 24 20 22 26 25 27 24 23 22 18 24 24 22 26 30 32 37 33 35 36 33 33 32 32 25 28 21 28 25 17 18 18 19 19 21 21 31 44 50 53
38 35 40 34 29 28 30 31 26 26 25 26 23 22 20 25 24 28 29 30 37 33 35 37 36 27 25 25 23 19 27 24 23 21 18 24 23 19 22 23 22 24 40 47 53
38 32 35 34 34 30 32 32 29 30 27 27 23 23 21 23 26 25 27 30 34 32 39 41 35 29 26 27 28 27 28 26 19 16 18 17 21 19 17 23 25 29 33 42 51
35 31 35 29 31 32 34 33 29 31 33 31 24 25 24 19 20 22 26 25 32 37 37 38 31 28 29 28 27 26 26 27 20 18 15 15 15 15 17 23 36 40 33 30 45
35 34 34 35 36 34 33 30 30 30 33 34 33 33 31 22 21 21 24 25 29 33 33 37 30 26 25 25 25 25 29 32 31 19 17 17 17 19 36 51 53 45 35 39 48
40 41 40 37 36 35 35 36 36 38 37 36 35 33 29 28 28 27 27 27 29 33 33 33 31 25 24 28 30 30 32 35 32 39 33 19 29 35 51 55 57 59 45 35 45

GFSSW_sfc_dewp_045.txt.gz
Dewpoint
55 55 55 55 55 55 55 55 55 55 56 56 56 55 55 54 54 52 41 40 44 58 67 69 65 64 63 63 65 60 56 55 50 52 55 59 59 63 62 59 59 59 59 62 66
55 54 54 55 55 55 55 55 55 55 56 56 56 55 54 54 51 46 46 53 56 64 66 63 60 61 59 61 63 61 57 53 52 52 54 58 60 62 60 58 59 59 60 63 65
54 54 54 54 54 55 55 55 55 55 55 55 55 55 54 53 43 33 56 66 58 63 63 59 58 57 56 60 61 60 55 55 52 54 56 58 60 61 59 58 59 59 61 63 64
53 53 53 54 54 54 55 55 55 55 55 55 55 54 54 51 15 31 61 64 60 60 64 52 57 54 51 55 60 58 59 58 58 55 55 56 58 58 60 59 61 60 62 63 61
53 53 54 54 54 54 54 54 55 55 55 55 54 54 51 32 21 40 61 59 55 56 55 46 52 49 43 51 55 58 58 58 58 57 57 57 56 56 58 61 61 61 62 61 60
53 54 54 54 54 54 54 54 54 54 56 56 53 54 46 17 33 44 53 54 52 55 49 47 44 48 46 53 49 50 56 56 55 55 55 55 54 55 59 60 60 60 60 60 59
54 54 54 54 53 53 53 53 53 55 56 55 55 51 40 31 41 45 47 51 52 52 46 44 45 42 41 37 46 49 49 47 48 48 51 52 51 54 59 60 59 59 60 59 59
53 53 54 53 53 53 53 52 53 55 55 56 56 51 33 42 45 36 41 46 49 50 37 39 39 43 35 35 32 34 38 36 44 48 48 48 47 55 59 59 59 58 59 59 58
53 53 53 53 53 53 52 53 53 56 57 56 52 48 15 37 19 21 24 36 47 49 38 33 33 33 34 33 31 35 22 31 36 46 48 48 47 56 59 59 58 58 57 57 58
53 53 53 52 52 52 52 52 59 58 56 54 49 30 17 14 17 21 27 45 44 39 32 31 33 28 28 27 19 27 26 37 35 45 47 47 47 58 60 58 57 57 56 56 56
53 53 52 51 51 51 47 34 25 24 25 16 15 17 14 16 19 20 28 41 39 31 22 30 23 24 23 27 24 33 34 29 40 43 45 46 46 55 60 59 58 57 56 55 56
53 52 52 51 51 51 40 28 30 30 22 18 16 16 16 17 19 17 28 33 39 34 28 25 21 22 21 22 27 25 31 33 37 39 44 45 46 49 59 59 59 57 56 55 56
52 52 51 51 51 40 32 29 33 23 18 14 15 14 15 18 20 18 26 28 30 34 33 27 24 24 23 20 20 24 23 30 31 32 37 40 41 44 57 59 60 60 58 57 56
52 51 51 50 37 37 28 33 38 29 13 14 15 14 15 18 15 20 27 28 24 28 33 32 32 25 22 20 19 16 19 25 30 31 33 39 38 44 46 57 59 59 60 59 58
52 51 50 49 39 29 31 39 29 19 3 16 14 17 17 14 18 18 29 30 26 27 29 30 31 31 30 25 22 19 20 19 20 29 32 33 34 41 48 51 55 58 59 60 60
51 51 50 44 40 35 39 32 22 13 4 14 14 13 16 20 23 22 32 35 35 31 33 28 30 28 31 30 24 23 22 23 21 17 20 32 33 35 41 50 53 56 59 60 60
50 49 48 45 35 38 39 22 12 6 15 13 12 14 18 19 20 21 32 32 28 10 22 24 20 25 25 27 28 28 26 23 21 20 13 22 31 34 39 47 50 54 58 60 61
49 48 44 44 41 40 26 20 13 11 13 15 13 15 14 17 21 20 25 28 32 31 28 22 -1 28 32 26 26 28 26 21 21 18 11 21 29 32 36 38 48 52 55 59 60
48 39 39 38 38 33 25 16 13 13 14 15 14 13 14 19 15 17 24 31 33 33 22 25 24 30 28 31 31 26 28 25 21 27 22 15 23 32 36 37 38 47 54 58 60
42 38 37 38 35 29 26 24 18 20 20 17 13 14 13 15 15 17 19 28 32 34 33 31 10 25 30 30 29 30 27 27 26 22 20 20 22 20 34 35 38 41 49 55 58
38 27 33 38 28 25 22 22 19 23 24 19 16 15 16 15 18 19 16 26 32 34 33 30 24 11 21 25 26 27 27 28 28 28 21 18 20 29 31 40 39 40 43 51 56
39 13 35 36 30 30 27 30 32 24 26 23 22 19 18 19 20 20 18 18 31 33 29 33 33 25 15 16 24 26 32 28 28 31 29 27 21 29 32 33 36 37 40 44 54
37 37 38 35 29 30 32 31 31 28 28 26 23 23 22 20 19 22 24 28 34 31 32 35 31 17 2 10 23 25 27 31 28 29 33 27 26 31 34 35 37 38 40 49 53
39 29 33 34 35 33 30 31 30 30 31 33 29 25 22 20 26 21 24 33 34 31 38 36 32 22 11 12 26 28 28 29 28 27 31 31 29 31 34 34 34 35 37 38 50
38 35 36 32 32 33 33 31 31 30 34 34 33 31 31 27 23 23 24 25 34 35 37 35 28 26 26 25 24 25 26 27 28 28 30 33 34 34 37 38 38 39 37 39 40
39 39 37 35 36 34 34 33 32 33 35 34 33 33 37 35 29 26 26 26 25 31 34 36 27 28 24 20 24 27 27 28 28 28 28 29 32 40 43 42 39 42 52 54 54
41 41 41 37 35 34 34 36 36 38 38 36 38 34 35 37 38 36 33 33 29 29 31 34 32 27 19 19 25 25 26 27 28 30 29 27 32 46 47 54 56 58 59 59 60

GFSSW_sfc_dewp_048.txt.gz
Dewpoint
55 55 55 55 55 55 56 56 56 57 57 56 56 55 54 54 54 51 34 40 43 53 64 62 62 61 60 62 62 63 55 54 49 51 56 58 59 62 63 59 59 59 58 61 65
54 54 54 54 55 55 55 56 56 56 56 56 56 55 53 53 47 40 42 50 55 58 60 59 58 57 55 57 59 58 52 49 51 51 52 57 59 59 59 58 58 58 60 63 64
54 54 54 54 54 55 55 55 56 56 56 56 55 55 54 52 40 37 57 63 63 59 55 54 53 53 47 54 55 55 51 53 51 52 55 58 59 60 57 57 58 58 62 63 64
54 54 54 53 54 54 55 55 55 55 55 56 55 54 55 48 21 30 62 63 68 55 53 50 49 46 43 48 52 50 54 54 53 54 55 55 57 57 57 57 59 59 62 63 62
54 54 54 54 54 54 54 55 55 55 55 56 55 55 50 32 18 36 62 62 52 53 52 48 46 43 38 40 44 49 52 56 56 55 54 56 55 55 57 59 59 59 61 61 60
55 55 55 54 54 54 54 54 54 54 57 57 54 55 43 19 34 36 49 50 46 52 50 44 43 39 36 36 38 39 44 55 55 54 54 54 53 53 55 60 59 60 60 60 59
54 54 54 54 53 53 53 53 53 55 56 55 55 50 26 23 30 32 40 47 47 46 45 40 38 38 32 34 39 39 44 44 49 52 52 52 49 51 58 59 59 60 60 59 59
54 54 54 54 53 53 53 53 54 55 55 55 56 49 25 26 31 23 33 46 48 48 43 42 40 36 32 31 26 30 30 35 42 46 49 50 47 53 58 58 59 59 59 59 59
54 54 53 53 53 53 53 53 55 56 57 57 49 41 17 34 19 23 26 41 43 44 40 41 38 36 35 26 20 21 19 27 36 46 48 48 45 55 57 57 58 59 59 58 59
53 53 53 53 52 52 52 52 58 57 53 50 43 28 16 16 17 25 36 43 41 44 32 30 32 28 27 22 16 17 18 24 29 43 48 47 46 54 56 56 58 59 59 59 58
53 53 53 52 52 52 47 38 37 24 19 17 16 15 13 18 18 27 35 40 40 42 31 25 25 23 20 23 19 24 23 23 32 39 46 47 46 50 56 55 57 58 59 58 58
53 53 52 52 52 52 41 27 30 30 19 16 16 15 15 18 16 19 33 37 32 31 29 24 21 21 23 20 22 19 27 30 31 36 43 45 45 46 55 55 57 57 57 57 57
53 52 52 51 51 42 28 30 35 32 19 14 16 14 14 17 16 15 25 29 34 27 24 23 21 19 19 21 21 21 18 21 29 35 36 43 44 45 48 55 56 57 57 57 56
53 52 52 50 41 32 28 33 36 34 14 15 15 14 14 17 15 16 23 26 27 31 30 23 22 23 20 20 19 17 16 17 19 28 31 37 37 44 45 52 55 57 56 56 57
53 52 51 50 39 28 34 36 30 24 1 15 14 15 15 12 15 15 25 21 21 24 31 28 28 27 26 24 21 20 17 16 17 17 29 34 36 40 43 45 52 54 56 56 57
52 51 50 45 40 34 36 33 25 14 4 13 13 12 13 16 16 15 22 26 29 19 27 27 30 28 28 28 26 25 23 21 20 14 11 26 33 36 39 44 46 52 54 57 57
50 50 47 42 34 36 37 24 12 4 13 13 11 12 14 14 15 15 21 19 16 10 16 20 23 27 28 28 29 27 23 20 18 14 9 17 23 35 37 40 45 47 52 55 58
49 48 44 39 37 36 33 19 13 10 11 14 12 12 12 14 16 14 18 16 23 20 11 8 7 18 28 27 27 28 24 23 23 13 10 15 16 23 35 39 41 47 48 53 56
49 38 36 34 36 37 26 14 10 14 13 13 13 13 13 15 14 14 17 18 22 22 14 13 9 26 25 29 30 28 25 24 23 22 17 12 15 15 27 35 38 40 46 48 55
40 36 30 35 34 31 23 21 18 18 17 16 16 16 15 14 16 16 14 23 22 24 21 22 9 11 19 22 26 30 26 24 23 25 23 21 22 14 26 35 36 38 41 47 53
36 29 31 35 30 27 21 24 23 21 22 20 19 18 17 16 16 17 15 21 24 25 25 20 15 12 12 5 11 23 26 27 25 24 23 22 20 25 26 28 36 37 40 42 51
35 19 33 36 30 31 27 30 32 24 23 23 22 21 19 19 19 20 18 17 25 25 19 24 20 19 10 5 10 14 27 26 23 28 26 25 23 23 27 27 28 34 39 41 48
35 31 35 35 30 30 31 29 30 28 27 27 24 23 23 22 21 19 19 17 25 23 22 26 21 16 4 3 10 12 14 24 28 29 30 26 26 30 31 32 32 31 33 42 45
36 31 34 35 35 33 31 30 28 29 29 31 30 29 26 24 22 22 20 23 26 23 34 26 18 19 7 8 12 20 21 22 26 26 27 27 29 33 32 32 34 36 39 37 41
37 34 35 31 31 32 32 31 29 30 30 30 30 30 31 30 26 23 23 24 26 30 32 29 29 22 18 17 16 14 10 18 26 30 29 28 28 31 36 35 35 36 37 38 40
37 38 36 34 35 33 33 32 31 34 34 31 32 31 35 37 31 28 29 27 26 30 30 29 28 23 19 17 17 14 10 9 17 24 28 30 31 33 35 39 37 36 38 41 47
41 41 41 36 34 35 34 37 36 36 36 36 36 37 35 37 38 39 35 37 37 32 32 33 31 27 18 15 12 10 12 15 14 21 26 28 32 35 38 42 42 43 43 50 53

GFSSW_sfc_dewp_051.txt.gz
Dewpoint
55 55 55 55 55 56 56 57 57 57 57 57 57 57 55 55 55 50 33 42 45 55 60 56 54 56 57 56 57 59 55 53 50 52 56 58 60 61 64 60 59 60 59 62 63
55 55 55 55 55 55 56 56 56 57 57 57 57 56 55 54 48 36 49 54 58 57 56 51 53 54 53 53 55 56 50 50 52 51 56 57 57 58 58 57 57 58 60 62 62
54 54 55 54 54 55 55 56 56 56 56 56 56 56 55 53 42 37 60 60 62 58 55 52 51 52 49 48 51 51 48 49 51 51 54 56 57 58 58 55 57 57 61 62 62
54 54 54 54 54 55 55 55 55 55 55 56 56 56 55 50 29 37 59 61 65 52 56 51 48 47 43 41 47 47 48 48 53 52 55 59 61 57 57 63 57 60 62 62 62
55 55 55 55 54 54 55 55 55 55 55 57 57 55 52 38 22 33 62 61 57 47 53 48 44 44 38 36 43 46 46 52 54 53 53 56 57 56 56 57 58 61 62 61 61
55 55 55 55 55 54 54 54 54 54 56 58 57 56 50 25 28 30 45 52 47 40 48 46 42 42 36 34 36 38 43 51 54 54 54 52 54 55 57 57 58 60 61 60 60
55 55 55 55 54 54 54 54 54 55 57 57 56 52 35 23 26 29 41 41 38 40 45 44 40 39 34 32 31 35 37 40 52 52 56 54 53 54 55 57 58 59 60 59 59
54 54 55 54 54 53 53 53 56 56 55 56 57 52 25 23 25 23 33 42 43 45 46 41 38 36 35 30 26 30 34 38 45 50 51 51 48 50 56 56 57 58 59 59 59
54 54 54 54 54 53 53 53 57 57 57 57 54 47 20 33 19 22 26 40 44 44 43 40 38 34 33 27 25 18 24 30 33 46 48 48 51 58 55 56 57 59 58 58 58
54 54 54 54 53 52 52 52 57 57 56 48 41 30 16 16 17 25 29 36 40 42 38 38 35 31 29 27 17 13 18 22 29 41 44 46 53 59 53 54 57 58 58 58 58
54 54 54 53 52 52 47 41 42 39 28 17 16 15 14 17 18 27 38 38 40 39 29 32 30 25 27 29 23 16 13 19 25 34 43 46 50 61 52 52 56 58 58 58 58
54 53 53 53 52 52 45 25 27 28 22 15 15 14 15 18 14 24 34 34 33 35 33 24 22 24 23 22 20 18 18 21 23 33 44 46 47 49 51 52 55 56 57 57 57
54 53 52 52 51 43 27 27 30 30 22 14 13 13 12 15 14 13 24 31 30 31 31 27 22 21 21 22 20 20 18 20 28 31 37 43 45 46 52 52 54 55 56 57 56
53 53 52 51 43 27 27 30 30 29 19 14 12 12 12 14 13 14 18 25 26 28 22 22 22 21 20 19 21 20 19 17 20 31 32 38 38 46 48 51 52 54 54 56 56
53 52 51 50 42 27 30 29 26 27 5 15 12 14 12 12 15 13 17 20 21 21 28 25 21 19 21 19 20 21 20 16 15 18 25 31 35 42 45 51 49 53 54 54 56
52 51 50 44 40 30 30 29 25 14 5 11 11 11 11 12 13 13 14 16 21 21 24 26 26 23 20 21 22 23 20 21 18 13 14 24 32 35 41 44 48 50 53 54 55
50 49 48 40 32 31 31 27 15 3 13 13 9 10 11 12 13 12 16 15 11 10 10 15 18 27 27 24 25 25 22 20 19 15 11 15 25 34 37 45 44 47 51 54 55
49 48 44 33 31 31 31 23 15 8 9 13 9 10 9 12 13 12 13 13 17 17 12 7 7 13 21 24 24 25 23 19 23 17 12 14 16 25 34 38 50 53 50 52 54
48 37 33 30 31 32 28 18 12 14 12 9 9 11 10 13 14 15 15 12 16 16 14 6 8 19 23 22 24 26 25 22 18 19 18 14 13 14 25 31 38 42 47 51 52
43 31 28 30 31 30 24 22 16 17 16 15 15 15 15 14 15 16 16 18 19 20 19 17 18 13 14 23 24 26 28 23 21 22 23 21 21 13 20 25 31 38 42 47 51
44 30 31 33 31 28 23 26 25 23 22 21 20 20 19 18 17 17 17 18 19 20 18 14 17 11 10 16 12 11 18 25 24 21 19 21 21 25 24 23 26 31 39 43 46
36 27 35 35 31 30 28 30 32 25 25 24 24 23 22 21 20 20 19 20 20 21 19 15 13 12 9 7 -0 2 13 13 20 29 24 20 21 24 25 22 24 29 36 38 44
35 33 36 35 30 30 31 27 28 27 27 27 27 26 25 23 24 24 22 22 21 21 20 21 19 13 15 12 11 7 9 19 20 19 28 22 20 25 28 28 31 29 30 39 42
36 32 34 33 33 30 31 28 27 28 27 29 28 28 28 27 26 25 22 21 20 22 33 26 20 19 12 16 14 13 5 8 16 19 22 23 27 27 31 31 33 34 32 34 42
37 34 36 31 30 31 31 30 28 28 30 30 28 29 29 30 28 28 26 24 24 28 28 25 22 22 19 16 15 13 13 13 16 19 19 23 26 31 34 36 35 34 37 38 37
36 37 34 33 34 31 33 31 30 32 33 30 32 31 32 33 31 31 34 36 29 25 26 25 26 26 25 18 15 11 12 12 10 9 20 25 28 30 34 36 38 39 38 39 41
40 40 37 34 32 31 32 34 33 33 33 32 33 34 34 33 33 33 31 33 39 35 34 32 28 29 24 21 16 14 15 12 12 11 9 12 23 28 31 34 36 38 39 39 40

GFSSW_sfc_dewp_054.txt.gz
Dewpoint
56 56 56 55 55 55 56 57 57 57 57 57 57 57 57 56 55 51 34 42 48 53 52 44 51 54 57 57 57 54 56 54 54 53 61 62 61 60 60 62 61 61 61 61 61
55 55 55 55 55 55 56 56 57 57 57 57 57 57 57 55 49 42 56 61 57 56 38 50 48 52 53 53 53 53 53 51 53 55 57 61 58 59 59 58 58 59 61 61 60
54 54 54 54 54 55 56 56 56 56 56 56 57 57 56 54 47 37 58 58 59 58 46 51 47 50 48 50 50 50 50 50 52 55 58 58 56 57 57 55 57 60 61 61 60
54 54 55 54 54 55 55 56 56 56 56 56 57 57 56 49 35 40 63 63 65 50 46 53 47 47 46 46 46 45 47 48 49 54 56 61 62 59 62 64 63 61 61 61 60
55 55 55 55 55 55 55 55 55 55 55 56 58 57 52 43 35 39 65 63 55 44 44 53 47 46 43 42 41 41 44 46 51 55 55 61 61 62 61 62 61 61 61 61 60
55 55 55 55 55 55 55 55 54 55 56 57 58 56 47 40 25 26 35 51 43 35 42 53 46 43 41 38 34 39 41 43 49 52 54 56 59 61 59 61 59 60 61 61 60
55 55 55 55 55 54 54 54 54 57 57 57 57 51 48 36 24 25 34 42 42 35 38 49 45 40 39 35 33 32 35 36 41 52 52 53 51 53 60 61 59 59 60 60 59
55 55 55 55 55 55 54 54 54 58 56 56 57 51 45 21 23 21 30 39 40 37 34 45 43 38 37 35 28 26 29 32 36 51 52 52 48 51 62 65 58 59 59 60 59
54 55 55 55 55 54 53 53 54 59 58 57 54 49 37 35 20 19 23 35 37 37 42 44 40 37 33 34 27 24 22 30 33 44 49 50 50 58 63 64 58 59 58 58 59
54 54 54 54 54 53 52 52 54 56 55 49 44 36 26 14 16 21 23 36 37 40 41 41 37 33 32 28 25 21 17 22 28 32 44 46 50 59 63 60 57 58 57 57 58
54 54 54 54 53 52 48 37 41 43 39 30 25 23 15 16 17 24 30 29 36 39 35 38 34 32 30 28 27 22 17 13 21 26 42 46 54 54 56 56 57 57 57 57 57
54 53 53 53 52 51 46 31 25 26 24 22 13 13 12 14 13 24 33 33 35 36 32 29 31 32 24 27 26 26 23 16 15 21 35 51 53 54 54 58 58 56 56 56 56
54 53 53 52 51 44 32 26 27 26 22 15 13 7 10 12 11 14 21 31 30 29 32 26 23 25 24 22 23 21 20 18 17 22 29 34 50 52 52 55 60 53 55 56 57
53 52 52 51 44 32 25 27 27 25 20 15 10 10 10 10 10 13 14 23 24 26 25 29 28 22 19 21 21 20 19 18 17 19 25 32 33 52 55 57 58 57 54 54 56
52 52 50 50 41 33 29 25 25 25 13 14 11 13 10 9 14 13 13 16 18 21 25 23 24 25 22 20 20 20 21 20 19 17 21 29 31 35 54 55 57 61 55 54 56
51 50 50 41 43 34 25 27 24 16 8 12 12 9 8 9 10 12 12 14 18 16 18 19 23 19 19 19 20 19 19 21 21 14 13 18 24 30 40 51 53 59 58 56 55
50 50 48 39 35 29 25 26 17 10 14 13 8 8 8 11 11 10 11 13 8 11 12 17 19 24 26 19 19 19 18 19 18 16 12 13 14 24 34 49 55 54 58 59 57
49 48 46 34 29 26 26 24 18 11 9 10 7 7 7 7 10 10 10 11 13 10 11 9 2 11 24 26 22 21 20 19 20 16 16 20 14 16 23 37 52 55 57 60 55
49 43 39 32 27 27 25 21 15 15 12 9 7 6 4 5 10 12 14 10 9 14 13 9 9 11 9 21 23 23 23 21 18 18 17 17 18 18 19 27 42 51 54 58 59
46 41 28 30 26 26 24 24 18 19 18 16 12 12 14 12 13 14 13 13 12 19 20 18 17 14 15 19 19 20 23 22 21 23 23 18 22 18 24 27 36 49 51 55 62
46 35 33 33 32 28 24 27 26 25 23 22 21 20 20 19 17 16 15 17 17 18 20 16 14 11 14 15 15 17 17 23 25 25 22 20 20 28 34 28 31 49 53 49 54
41 31 35 35 32 30 30 29 31 26 26 24 24 23 23 22 22 22 21 19 20 19 19 20 12 13 12 11 13 13 13 8 10 28 27 24 20 23 31 25 24 25 32 53 57
40 33 35 35 30 30 30 26 26 26 26 26 26 26 27 25 26 24 23 22 22 21 24 23 18 15 14 11 9 8 4 4 5 9 22 24 23 25 28 33 30 27 30 42 59
42 33 33 31 30 29 29 27 26 26 27 27 26 26 26 26 28 28 28 25 25 20 36 27 21 22 15 15 18 16 12 8 4 12 16 13 23 30 33 40 42 41 43 38 45
36 32 35 31 31 30 32 29 29 29 29 29 28 29 29 27 27 25 24 30 32 32 24 24 22 22 20 19 18 17 14 13 9 10 16 18 19 26 36 39 42 44 44 46 44
37 36 32 32 31 30 33 30 28 28 30 28 28 28 28 29 28 27 28 29 31 32 30 24 23 24 23 22 20 19 15 13 13 8 7 12 17 22 29 34 38 41 43 43 45
40 40 36 34 31 30 31 32 30 33 34 31 31 32 30 30 30 28 28 28 30 30 34 30 28 27 24 22 21 20 19 15 14 15 14 13 19 22 23 27 34 35 36 39 44

GFSSW_sfc_dewp_057.txt.gz
Dewpoint
55 55 55 55 55 55 56 57 57 57 57 57 57 58 58 58 57 52 41 42 42 60 57 45 47 51 62 63 63 61 53 55 55 53 60 63 61 60 61 62 62 61 61 60 59
54 54 55 55 55 55 56 56 57 57 57 57 57 57 58 57 50 46 52 65 65 63 30 41 46 49 52 56 56 55 52 52 54 55 59 62 61 57 59 61 61 61 61 61 61
54 54 54 55 55 55 56 56 56 56 56 56 56 57 57 55 48 43 61 65 66 60 29 38 45 47 51 53 53 50 50 51 52 55 59 60 63 59 59 58 60 60 60 60 60
54 54 55 55 55 55 55 56 56 56 56 56 56 58 56 51 39 43 64 65 66 47 35 42 49 45 49 48 50 49 48 49 50 59 63 63 66 60 61 63 65 63 61 59 59
54 54 55 55 55 55 55 55 55 55 56 56 57 57 52 45 38 47 67 66 58 48 36 41 50 47 46 46 45 45 45 45 51 57 63 63 61 61 61 63 65 63 61 59 58
54 55 55 55 55 55 55 55 55 55 57 57 59 57 48 43 28 44 56 56 47 43 36 42 51 49 45 44 42 41 41 40 43 57 61 59 60 61 61 60 62 62 60 59 58
54 55 55 55 55 55 55 55 54 54 58 57 58 52 48 46 29 25 28 52 47 40 32 41 50 51 43 40 39 34 32 32 37 50 56 59 57 58 62 62 61 60 59 58 58
54 55 55 55 55 55 55 54 53 54 58 56 57 51 48 42 23 22 23 34 47 40 31 39 47 48 40 38 36 30 27 27 33 45 51 53 54 61 65 64 60 59 59 59 58
55 55 55 55 55 54 53 53 54 54 58 57 55 51 43 37 21 21 23 30 41 41 34 31 37 42 39 33 34 33 24 24 27 33 51 52 57 62 65 63 59 59 60 59 59
55 54 54 54 54 53 52 52 53 51 55 52 48 43 40 24 17 21 22 23 36 34 33 33 41 37 35 31 29 31 23 21 21 30 49 52 58 61 61 61 61 59 59 59 58
54 54 54 53 53 52 50 39 42 41 38 38 37 34 22 16 16 19 25 26 36 38 37 40 39 35 32 32 30 28 27 23 19 22 43 51 58 61 60 61 63 63 59 58 58
54 54 53 52 52 51 49 36 26 25 24 26 31 26 13 13 13 23 32 24 34 35 37 35 35 37 34 32 30 26 26 25 25 20 26 50 54 56 60 59 63 62 59 58 58
53 53 52 51 51 48 35 32 27 26 24 21 16 13 8 11 11 20 28 32 32 32 36 31 30 34 32 31 24 25 25 25 23 21 34 51 51 53 55 58 61 63 61 59 57
53 52 52 51 45 36 34 30 25 26 22 19 12 10 11 12 9 14 14 18 25 29 29 29 31 27 28 27 25 21 24 22 19 19 19 48 45 51 53 57 61 60 60 59 57
52 52 51 50 43 35 33 24 25 26 18 14 11 14 10 9 15 13 14 14 15 18 22 24 25 27 27 23 21 20 23 21 21 19 18 17 19 47 52 56 57 61 57 56 59
52 51 50 45 47 40 36 27 28 21 16 12 12 11 10 9 9 14 15 16 15 15 15 16 19 23 26 25 23 21 20 19 21 20 18 16 17 26 51 54 55 54 55 56 58
51 50 49 43 37 35 26 27 23 16 15 11 9 8 8 9 9 12 11 12 11 9 12 17 18 20 21 21 19 20 25 18 19 18 18 17 14 14 52 54 55 54 55 58 61
50 49 48 43 37 31 29 27 23 16 12 10 7 7 10 11 11 12 14 10 14 10 8 10 8 7 17 24 26 20 18 20 17 19 18 20 17 19 18 55 54 53 57 61 60
49 45 43 41 41 29 30 25 21 17 17 14 10 12 10 6 10 13 16 13 12 19 15 16 14 18 16 19 26 25 23 19 17 18 19 19 19 21 21 41 53 54 56 57 59
47 45 41 32 28 30 29 27 24 23 21 20 18 17 18 16 13 14 14 14 17 20 21 19 15 16 13 16 24 23 25 21 20 18 19 21 22 24 24 19 50 53 54 60 62
47 43 37 35 35 35 29 30 27 25 25 23 23 22 22 22 23 22 21 21 21 20 21 20 17 15 14 14 16 20 21 25 22 25 22 19 20 25 30 35 49 52 53 59 58
45 39 37 38 37 37 31 28 32 26 27 26 27 26 27 26 24 23 23 24 23 23 22 23 19 16 14 14 14 14 16 17 17 19 26 28 27 29 33 40 44 51 51 58 61
44 40 36 36 31 31 30 26 26 25 27 26 25 26 27 27 27 28 27 27 27 24 29 24 22 18 14 11 15 16 13 9 9 7 7 13 22 34 34 36 40 44 46 55 59
45 37 37 35 32 31 31 29 28 28 28 27 28 30 29 27 27 28 27 27 31 29 36 30 21 21 19 20 21 19 18 17 13 5 7 10 14 14 32 34 34 40 40 48 60
45 33 37 32 32 32 30 29 26 27 28 29 30 27 27 26 26 26 27 29 30 35 32 27 22 23 21 20 19 19 18 17 16 15 13 10 13 29 29 29 33 32 33 37 42
40 40 39 34 35 31 33 31 28 30 32 28 30 30 30 28 29 28 27 27 28 29 30 30 27 23 22 21 21 20 21 21 20 16 14 14 11 15 19 20 21 20 21 24 28
45 45 42 36 32 30 32 32 30 33 32 31 33 35 32 31 32 30 30 28 27 27 31 33 33 31 25 25 25 23 20 21 21 21 15 13 16 19 22 24 22 23 27 27 25

GFSSW_sfc_dewp_060.txt.gz
Dewpoint
55 55 54 55 55 55 56 56 57 57 57 57 57 57 58 59 57 54 43 40 41 69 61 57 56 50 61 63 63 62 57 54 53 53 59 64 62 63 63 62 61 61 60 59 62
54 54 55 55 55 56 56 56 57 57 56 57 57 57 58 58 52 46 50 58 61 66 32 42 42 48 50 60 61 61 56 54 53 58 60 63 62 59 61 61 61 62 60 59 61
54 54 55 55 56 56 56 56 56 56 56 56 56 57 58 56 49 46 58 66 67 62 32 31 43 48 48 51 56 54 55 55 54 59 58 57 59 62 59 59 61 60 58 59 59
54 55 55 55 56 55 56 56 56 55 56 57 56 57 58 53 38 43 65 66 68 48 33 32 39 46 46 49 53 51 52 51 52 60 60 60 63 62 61 63 63 61 60 59 59
54 55 55 55 55 55 55 55 55 55 55 57 57 58 52 46 36 49 67 65 61 47 34 35 45 48 44 48 50 47 48 51 51 62 60 59 60 59 60 64 64 63 60 59 59
54 55 55 55 55 55 55 55 55 54 55 58 58 58 48 42 45 53 57 59 51 44 39 34 45 51 48 46 46 46 44 42 61 61 61 61 61 61 60 63 64 63 59 59 59
54 55 55 55 55 55 54 54 54 54 54 59 57 54 48 40 41 54 56 54 49 45 36 35 39 45 51 45 44 44 39 32 49 62 61 60 59 59 60 62 64 62 59 59 59
54 54 55 54 54 54 54 54 53 54 54 58 58 53 46 50 49 36 53 52 48 44 36 34 38 43 49 48 39 35 31 25 37 60 60 55 55 61 62 63 62 60 59 58 59
55 55 54 54 54 54 53 53 53 54 55 58 53 51 44 48 23 21 22 25 48 41 37 31 33 38 42 37 32 33 31 29 25 41 59 57 58 61 63 63 61 59 59 58 59
54 54 54 54 53 53 52 52 52 53 55 54 51 44 40 32 20 19 21 33 42 41 38 34 31 32 37 34 30 32 31 25 23 23 53 56 58 62 63 62 60 59 58 58 59
54 54 53 53 53 52 50 42 33 36 42 38 39 35 26 27 17 16 25 23 35 34 32 35 37 37 38 34 32 31 29 28 28 28 31 55 59 62 63 62 60 60 60 58 59
54 53 53 53 52 51 49 33 31 24 22 30 34 35 34 25 14 16 23 24 35 34 36 37 37 38 37 34 32 31 29 27 27 28 30 57 58 61 61 61 61 61 60 59 59
53 53 53 52 51 48 39 31 33 28 23 23 22 20 24 10 12 15 29 28 33 33 35 35 35 37 37 35 32 31 29 28 26 27 53 55 55 58 59 60 62 63 62 63 59
53 53 52 51 42 39 33 33 29 26 19 19 18 14 10 10 9 15 17 20 25 31 32 35 36 32 33 33 31 28 26 25 25 22 25 49 47 52 57 58 61 57 59 61 61
53 53 51 50 43 34 29 34 33 24 16 18 11 13 10 7 12 13 16 13 18 17 20 26 27 31 30 28 30 28 27 23 25 22 19 23 18 44 55 56 60 56 56 58 60
53 52 50 46 45 42 40 37 25 18 17 12 12 10 9 10 10 14 16 15 17 16 17 15 18 20 25 27 29 26 22 20 21 20 17 18 16 42 51 55 59 60 61 61 59
51 50 49 46 31 37 34 27 21 15 17 12 11 9 8 8 9 12 13 14 9 6 7 12 14 16 20 21 24 21 19 17 17 15 16 19 17 17 51 52 57 59 60 59 58
50 49 49 45 42 40 29 24 20 17 18 16 8 7 7 9 11 12 10 9 13 12 8 7 7 9 15 22 24 21 18 18 15 16 18 20 17 19 40 52 55 57 58 56 56
49 45 43 41 42 35 26 22 22 21 21 20 15 11 19 19 11 13 12 16 19 19 12 15 14 18 16 14 23 24 22 19 17 26 18 20 21 25 34 34 55 54 54 56 57
45 44 42 42 39 29 25 31 23 25 24 23 21 22 21 22 21 21 17 22 20 21 20 19 12 16 16 15 20 29 24 20 21 17 18 20 21 23 34 42 50 53 54 54 61
46 41 37 35 34 30 28 31 26 26 26 23 24 24 25 24 23 22 22 23 23 22 22 21 16 15 13 13 15 13 16 20 21 24 21 19 20 32 38 41 43 53 54 55 60
45 34 35 37 33 34 26 25 31 27 28 26 26 26 26 26 25 25 26 27 28 26 26 23 19 17 15 18 17 14 18 16 17 16 22 26 24 33 36 38 35 41 54 59 61
43 43 36 33 28 29 29 28 27 28 28 27 28 28 28 26 24 27 28 31 30 29 28 24 21 18 13 16 22 20 20 19 15 10 7 8 12 29 34 37 34 35 54 59 62
43 31 34 33 32 29 28 26 27 29 29 28 27 27 26 25 26 26 26 28 29 33 41 29 21 20 18 20 21 19 20 21 16 11 11 11 12 21 23 24 25 34 42 61 63
40 32 33 30 31 30 30 29 30 29 31 32 31 30 27 24 26 27 28 27 28 36 31 26 20 22 21 21 21 21 20 21 21 20 15 14 14 16 21 21 20 25 31 51 60
37 36 37 31 31 30 32 30 30 31 32 31 32 32 31 29 30 29 28 27 26 27 29 32 28 29 26 25 25 24 25 24 21 21 21 20 15 19 24 25 25 27 28 36 41
44 43 35 34 32 31 31 31 32 33 32 34 35 33 32 33 34 33 31 30 28 28 25 30 30 28 24 27 26 22 23 24 23 24 23 21 23 24 27 27 26 38 41 42 43

GFSSW_sfc_dewp_063.txt.gz
Dewpoint
54 54 55 55 56 56 56 56 57 57 57 57 57 57 57 58 58 54 43 37 43 67 70 65 61 53 64 63 64 63 57 53 53 54 59 62 62 64 64 61 57 62 58 62 65
54 55 55 56 56 56 56 56 56 56 56 56 56 57 57 58 53 47 50 53 58 67 51 53 49 48 53 62 62 61 57 56 55 58 59 62 62 62 61 60 59 57 61 63 66
54 55 55 55 56 56 56 56 56 56 56 56 57 56 57 57 50 45 57 58 62 66 32 42 46 48 49 52 61 57 56 55 55 59 61 62 61 61 59 59 61 56 60 62 65
55 55 55 55 56 55 56 56 56 55 55 56 57 56 58 53 28 44 61 64 66 49 31 32 42 46 46 49 51 52 54 55 53 58 57 58 62 61 61 61 62 58 61 62 63
54 55 55 55 55 55 55 55 55 55 55 55 57 57 51 45 34 51 62 67 61 40 32 32 43 45 45 48 50 51 51 50 51 56 58 58 58 60 62 64 64 59 60 61 62
54 55 55 55 55 55 55 55 54 54 54 55 58 57 46 32 41 60 55 60 54 41 35 39 42 47 48 45 47 48 48 47 53 59 58 57 60 60 62 65 63 59 59 59 61
54 54 54 54 54 54 54 54 54 54 54 55 58 53 48 31 46 57 54 55 49 41 37 33 41 46 50 49 47 46 45 42 59 59 59 61 59 58 63 64 63 61 58 59 59
54 54 54 54 54 54 54 54 53 54 54 56 59 52 45 47 49 53 55 51 48 43 35 35 38 41 47 48 41 34 32 28 56 59 60 59 52 60 64 64 62 62 59 59 58
54 54 53 53 54 54 53 53 53 54 55 58 51 49 43 50 43 40 53 43 46 44 41 32 36 38 39 40 34 33 32 32 40 60 59 59 55 60 63 63 62 61 59 59 58
54 54 54 54 53 53 52 52 52 55 56 54 52 44 38 31 23 21 41 43 46 40 37 34 31 30 36 36 34 32 32 30 27 55 58 57 56 60 61 62 61 61 59 58 58
54 54 54 53 53 52 50 41 30 32 46 34 31 35 33 32 18 20 21 38 36 38 35 32 30 31 34 37 36 32 30 29 30 30 27 55 55 60 61 62 61 60 60 57 58
54 54 53 53 53 52 48 29 30 28 24 31 37 38 36 34 22 16 23 25 34 32 34 36 33 37 39 36 33 32 30 30 30 29 29 38 55 60 62 61 61 60 59 58 58
54 54 53 52 52 47 37 31 33 34 25 23 26 26 24 30 18 12 22 26 34 34 35 34 36 38 38 38 35 32 30 30 29 28 55 55 55 58 61 61 62 62 61 60 58
54 54 53 51 39 39 32 32 36 28 19 18 21 19 15 11 9 14 27 23 24 32 34 35 36 36 34 35 35 32 32 31 28 24 19 50 43 55 58 58 60 62 61 60 58
53 53 52 50 43 36 30 38 36 23 14 19 13 13 10 7 11 13 16 14 18 18 29 31 28 35 32 30 32 31 32 28 26 21 20 24 29 39 57 56 57 61 62 61 60
53 52 50 46 43 42 42 33 24 17 15 13 12 9 8 9 11 14 15 14 15 13 16 14 17 21 27 29 30 31 29 21 21 19 16 17 18 35 53 54 56 59 61 61 61
52 50 49 46 29 37 35 26 19 15 19 16 11 10 8 9 11 13 13 12 10 8 7 13 13 17 21 21 22 23 20 18 17 16 15 19 17 18 48 55 55 57 60 57 59
50 49 49 46 42 40 28 23 19 20 20 21 14 9 13 11 12 12 12 16 18 13 7 6 6 12 17 19 20 19 19 17 14 16 17 21 16 21 37 46 54 56 57 58 59
49 45 43 41 44 33 27 22 22 23 24 22 21 21 22 22 17 14 20 22 21 20 10 14 14 17 17 16 18 22 20 19 18 23 16 19 21 27 41 42 44 55 59 59 60
46 44 39 42 37 30 32 30 25 27 25 24 21 24 23 23 22 21 22 24 24 23 20 19 14 16 16 16 16 18 23 22 19 15 14 19 21 31 37 36 40 53 57 59 60
45 35 35 36 34 31 28 27 26 28 27 25 25 25 25 25 25 23 26 26 28 25 24 26 16 14 14 15 14 17 18 18 21 20 18 18 26 34 37 35 36 45 54 57 55
44 30 37 35 29 30 26 27 31 28 28 28 28 27 26 26 26 26 28 29 31 27 26 25 19 16 16 20 20 20 19 17 17 18 20 23 25 25 34 32 31 55 54 55 59
42 42 38 33 27 28 28 27 29 29 28 27 26 27 27 25 25 27 29 28 33 32 34 27 20 14 11 14 21 20 21 22 17 12 12 10 16 21 23 22 27 51 59 62 62
37 30 33 32 32 28 28 29 28 31 31 31 30 28 26 25 27 26 26 28 30 33 42 28 21 19 16 19 21 20 21 21 19 17 16 12 16 16 20 23 25 31 45 58 62
36 32 35 30 30 30 30 30 30 30 31 32 32 30 27 28 28 28 28 28 28 33 32 25 24 27 23 22 23 22 24 23 20 21 19 17 18 17 21 22 26 37 42 45 50
37 35 34 32 30 30 32 30 31 31 30 31 32 31 31 30 30 28 29 29 27 28 26 30 27 28 25 28 26 23 24 23 23 21 21 21 22 23 28 29 38 39 39 38 40
44 42 33 34 32 31 31 32 32 32 33 34 34 32 32 33 34 33 32 30 30 28 26 28 28 26 22 28 24 20 24 25 25 25 23 22 26 35 35 35 38 38 38 38 38

GFSSW_sfc_dewp_066.txt.gz
Dewpoint
54 55 56 56 56 56 56 56 56 56 56 56 56 56 57 56 57 55 42 36 42 58 66 65 59 57 64 64 64 63 57 53 53 54 59 61 62 64 65 60 57 59 61 63 66
55 55 56 56 56 56 56 56 56 56 56 56 56 56 56 57 53 48 49 52 55 69 62 55 52 52 61 62 62 61 57 55 56 58 60 61 62 63 61 59 58 61 64 64 68
55 55 55 55 55 56 56 56 56 56 55 55 55 56 57 56 47 40 56 57 64 61 53 47 48 49 51 55 61 59 57 56 56 61 61 61 61 62 60 59 59 61 63 66 67
55 55 55 55 55 55 55 55 55 55 55 55 56 57 58 52 22 50 60 62 66 44 37 44 48 48 49 51 53 53 54 56 54 58 59 60 61 60 61 62 61 62 64 66 66
54 55 55 55 55 55 55 55 55 55 55 55 55 57 50 42 30 54 60 61 59 37 31 37 47 46 48 49 50 51 52 52 53 53 58 60 60 61 61 63 60 63 64 65 65
54 54 54 54 54 54 54 54 54 54 54 55 56 57 45 23 36 57 60 59 48 37 32 39 44 47 46 46 49 49 50 49 47 50 56 57 59 60 63 62 61 63 62 64 64
54 53 54 54 54 54 54 54 53 54 54 55 58 54 46 21 49 57 58 53 46 37 33 34 44 46 49 49 49 47 45 43 43 59 58 61 59 58 64 62 61 62 62 62 63
53 53 53 54 54 53 54 53 53 54 54 55 58 51 44 45 54 52 51 49 48 40 35 35 40 42 44 47 40 35 33 31 51 59 60 56 51 60 65 62 60 61 60 61 61
53 53 53 53 53 54 53 53 54 55 55 58 51 48 42 52 46 51 51 47 46 43 39 33 34 37 37 39 37 33 33 32 32 59 60 57 53 60 64 63 59 59 58 60 61
54 54 54 54 54 52 51 52 54 57 56 55 52 43 37 35 29 45 52 46 44 42 37 34 31 32 35 36 37 33 32 30 30 57 58 57 56 61 63 62 61 60 58 58 59
54 54 54 54 53 51 49 41 28 29 47 32 29 39 31 34 30 23 43 41 40 38 35 33 30 30 33 36 37 34 31 31 31 36 37 37 52 59 61 62 62 61 59 58 57
54 54 54 53 53 52 47 29 28 30 27 34 39 40 38 34 28 18 37 34 37 35 35 33 28 32 34 38 37 33 32 31 30 32 28 39 48 58 59 62 62 61 59 58 58
54 54 53 53 52 46 35 30 33 35 27 23 29 30 26 31 25 14 23 33 34 34 33 32 35 35 39 37 34 34 33 31 30 31 44 53 51 57 61 62 62 62 61 60 58
54 54 52 51 40 39 32 37 37 32 18 17 21 22 20 18 10 15 25 28 31 32 35 35 36 37 36 35 37 34 33 32 32 26 20 48 38 52 58 59 60 61 61 60 58
54 52 51 49 43 35 32 39 35 23 13 19 16 15 11 7 10 13 16 18 23 25 33 32 32 35 34 33 34 35 32 31 28 25 20 25 40 35 55 56 58 61 61 60 60
53 52 50 46 43 41 40 35 24 17 14 14 12 9 8 9 12 14 15 14 16 13 17 24 17 30 34 35 32 31 27 21 21 19 17 18 34 20 51 54 55 59 61 61 60
52 51 49 46 27 37 36 25 18 16 21 18 13 8 7 8 11 13 12 12 10 8 8 12 16 18 19 20 25 25 22 20 17 17 16 19 18 21 36 39 47 56 60 62 61
50 49 49 47 44 41 28 25 21 22 22 22 18 22 21 18 19 22 21 19 21 10 7 7 8 13 16 15 14 22 21 19 14 16 16 23 17 25 39 41 41 55 59 61 62
49 44 41 42 44 35 27 23 24 25 26 23 23 22 23 23 17 21 22 24 21 22 12 12 13 16 16 15 19 20 20 23 18 21 16 19 26 32 35 33 35 40 57 60 60
45 42 35 38 38 34 28 28 26 27 27 25 24 25 23 24 22 22 23 26 28 25 20 20 13 16 17 16 17 20 22 20 19 15 15 19 30 32 33 32 33 40 50 58 59
44 31 34 36 34 29 25 27 27 28 28 26 25 25 25 25 25 25 28 28 30 26 24 25 15 14 17 18 18 20 19 18 21 19 17 21 28 28 32 34 30 55 60 55 60
40 29 35 33 28 28 26 27 32 28 29 26 27 27 25 26 26 28 26 27 31 29 27 23 18 17 18 20 22 21 21 18 20 19 16 24 25 22 23 25 33 50 61 61 61
39 38 35 31 26 26 29 28 30 30 30 27 28 26 26 26 25 27 27 28 29 36 34 27 19 13 19 15 20 20 21 20 17 14 16 19 17 19 24 27 38 47 45 48 55
33 30 33 32 31 28 28 29 28 32 32 32 30 29 26 27 28 27 27 28 29 34 41 28 23 17 12 17 21 21 22 22 19 19 18 17 22 20 25 29 38 41 40 43 46
35 32 34 29 30 31 30 30 30 30 31 32 31 30 28 27 28 29 29 28 27 34 31 25 26 25 24 24 24 23 24 23 21 20 18 16 24 24 31 33 38 38 38 38 39
39 33 33 32 31 30 32 30 30 31 30 31 30 32 32 29 28 27 30 28 28 28 26 29 28 27 25 29 26 23 24 24 23 23 23 23 23 35 36 38 38 38 38 39 40
43 41 33 34 31 30 31 32 32 32 33 34 34 32 32 33 33 33 32 30 28 27 26 28 27 23 18 28 24 22 26 25 25 28 31 23 32 38 37 37 37 38 38 38 38

GFSSW_sfc_dewp_069.txt.gz
Dewpoint
55 56 56 56 56 56 56 56 56 56 56 56 56 56 55 55 56 53 38 35 40 61 65 61 59 64 64 63 64 64 57 53 52 53 59 61 62 64 64 59 58 59 60 61 64
55 55 55 55 56 56 56 56 56 56 56 56 56 55 55 55 51 43 45 51 56 66 57 51 51 63 61 61 61 61 59 54 55 57 58 62 63 63 61 58 60 61 62 63 64
55 55 55 55 55 55 55 56 56 56 55 55 56 55 56 56 42 28 54 56 59 66 54 48 53 58 58 61 59 59 56 56 55 58 60 60 61 63 60 57 59 61 62 63 62
54 55 55 55 55 55 55 55 55 55 55 55 55 56 57 52 12 40 60 60 69 56 45 48 50 50 55 56 58 57 56 55 54 57 58 59 62 60 60 61 62 62 61 62 61
54 54 54 54 54 55 55 55 55 55 55 55 55 57 52 37 24 56 60 66 53 43 41 44 47 49 46 53 53 55 54 53 52 52 54 59 59 59 60 62 62 62 62 61 61
53 53 53 54 54 54 54 54 54 54 54 54 54 56 46 16 42 53 54 60 48 37 39 46 47 50 48 52 51 51 50 48 46 46 51 55 58 59 61 61 62 62 62 61 62
53 53 53 53 54 54 54 53 53 53 54 54 56 53 40 19 52 53 53 51 48 35 35 41 50 47 49 48 48 48 44 38 53 54 56 59 57 57 61 62 62 62 62 62 63
53 53 53 53 54 53 52 52 53 55 55 55 57 53 36 43 54 55 49 46 40 36 34 35 44 45 46 47 42 40 35 37 53 57 58 57 53 59 62 62 62 62 61 62 63
53 54 53 53 53 52 51 52 56 56 56 58 53 50 34 53 52 50 44 39 41 39 37 32 38 43 41 44 42 35 37 34 35 58 58 56 53 61 62 61 61 61 60 61 62
54 55 54 53 53 51 51 52 54 57 56 55 52 44 39 37 42 47 49 41 39 37 32 30 31 38 39 42 37 37 33 30 36 52 57 54 53 61 63 62 60 62 60 61 61
55 55 54 53 52 51 49 46 31 37 50 31 28 33 29 32 35 45 44 42 39 34 29 29 32 34 41 43 38 36 33 32 32 42 41 32 35 51 62 62 61 61 60 60 60
55 54 52 52 51 51 47 30 29 32 28 32 37 37 36 34 23 42 44 35 38 30 32 26 25 33 40 41 37 37 35 34 32 33 34 33 37 58 58 61 62 60 59 59 60
54 53 52 51 52 47 34 31 34 33 28 23 31 29 26 31 21 29 38 37 37 36 30 23 23 32 38 38 37 36 36 34 31 32 43 51 50 56 60 61 62 63 60 59 59
53 53 52 50 41 41 33 35 37 34 18 16 21 23 25 28 12 21 30 34 35 36 33 30 31 34 39 39 38 37 35 34 32 31 24 42 29 50 57 59 61 62 62 59 59
54 52 51 49 43 35 35 37 32 26 13 18 17 19 17 11 13 17 21 24 30 34 35 32 35 34 38 38 38 38 35 34 32 31 25 30 32 41 54 55 58 62 62 60 60
53 51 50 46 45 41 38 35 27 19 14 17 11 13 13 10 12 14 14 17 18 25 30 28 25 36 38 36 35 35 28 25 25 25 23 23 30 29 40 44 44 57 61 61 60
51 50 49 43 28 39 38 28 20 19 23 20 17 9 12 12 16 15 21 21 16 20 27 16 16 17 25 28 33 32 28 24 23 22 22 23 24 35 37 38 40 46 53 62 62
50 49 49 46 45 45 31 28 23 24 24 24 23 21 18 20 21 22 22 20 23 11 12 24 21 15 16 18 21 29 27 23 22 20 20 23 21 33 31 38 46 54 54 59 62
49 46 41 38 43 38 31 25 25 26 26 25 23 19 23 22 19 22 25 26 25 23 16 16 14 16 17 18 21 23 24 23 20 21 19 21 28 31 29 39 48 57 58 57 61
47 40 36 36 39 35 29 27 26 28 27 26 24 25 22 25 21 23 25 30 29 26 23 20 16 17 18 19 21 24 23 20 22 22 20 25 32 28 30 40 50 57 59 56 59
40 35 35 35 34 31 26 27 27 28 28 27 26 25 26 26 27 27 27 30 31 30 25 21 17 19 21 21 21 22 22 23 23 23 19 22 27 24 34 47 49 48 55 61 61
37 31 36 35 30 30 27 28 33 29 30 27 27 26 26 27 28 28 28 29 30 33 24 25 19 19 19 21 22 22 22 21 22 27 24 26 23 27 40 45 43 46 48 52 58
37 35 36 33 27 28 30 29 30 29 30 29 27 27 29 28 28 28 28 28 30 36 30 26 20 18 18 19 21 22 22 20 16 20 24 21 18 29 42 41 40 40 41 42 45
35 30 33 34 32 29 28 30 29 31 31 31 31 29 28 29 30 28 27 27 28 34 40 28 24 21 12 20 22 22 22 21 20 19 20 21 23 30 38 38 37 38 38 39 41
37 33 34 30 31 32 31 31 29 30 31 32 31 31 28 28 29 29 29 27 27 34 32 30 26 26 25 24 23 23 21 20 19 22 20 22 23 31 38 38 38 37 38 38 39
38 33 34 33 33 32 33 31 30 32 31 30 31 32 32 31 30 29 30 30 29 29 28 30 29 28 26 26 25 21 23 22 21 19 20 21 27 37 38 39 39 39 39 39 39
44 40 36 35 33 31 33 32 31 33 34 35 33 34 34 34 34 34 33 32 32 30 29 31 30 26 22 27 23 18 25 24 25 32 27 21 35 38 37 37 38 37 40 40 39

GFSSW_sfc_dewp_072.txt.gz
Dewpoint
55 56 56 56 56 56 56 56 56 57 56 56 56 56 56 55 55 50 31 34 39 64 69 56 52 57 61 59 62 62 58 51 51 54 58 60 60 63 62 59 58 59 59 59 61
55 55 55 55 55 56 56 56 56 56 56 56 56 56 56 54 46 33 49 50 54 67 55 46 48 58 57 57 60 59 59 51 53 54 58 62 62 62 59 58 58 59 59 60 61
55 55 55 55 55 55 55 55 56 56 55 55 56 56 56 54 38 23 59 55 61 66 48 42 48 54 53 56 58 57 55 53 52 55 56 60 61 63 59 57 59 59 59 59 60
55 54 54 54 55 54 55 55 55 55 55 55 55 56 57 48 14 40 58 60 64 55 46 42 48 49 48 52 56 56 55 55 52 52 55 56 59 59 60 60 61 61 60 59 59
53 53 54 54 54 54 55 55 55 55 54 55 55 56 52 34 15 52 60 60 52 50 42 40 41 39 42 45 53 55 54 53 51 48 49 54 57 58 60 61 62 61 59 58 58
53 53 54 54 54 54 54 54 54 54 54 54 55 55 42 19 44 48 45 50 46 42 36 37 36 38 37 43 46 50 51 49 46 43 46 54 56 57 60 61 60 59 58 58 58
53 53 53 53 54 54 53 53 52 53 54 55 55 51 37 20 48 43 50 45 40 36 34 36 40 39 39 41 45 47 45 45 46 46 50 55 57 57 61 62 60 58 58 58 58
54 54 53 53 53 53 53 52 53 56 55 55 57 50 30 39 48 45 47 45 37 36 33 39 43 38 38 44 43 42 42 41 47 48 52 55 54 60 62 62 60 59 57 58 59
53 53 54 53 53 53 52 52 56 57 56 57 52 47 29 52 46 40 38 40 35 34 36 36 41 37 39 36 34 37 36 38 46 50 52 54 52 60 62 61 60 61 58 58 59
54 55 54 53 52 53 52 52 55 58 55 52 49 40 38 33 43 41 39 36 33 32 30 31 35 34 34 28 26 31 35 38 37 50 50 50 52 60 61 60 60 61 59 59 59
55 55 54 54 52 52 49 47 41 44 41 28 24 26 31 34 42 39 40 37 34 32 27 27 28 25 28 31 34 31 36 36 36 47 44 40 36 52 58 60 61 61 60 59 58
55 55 54 53 52 52 47 32 30 31 25 30 31 28 30 30 30 36 39 37 33 25 25 25 24 26 30 35 38 36 36 35 34 33 37 32 31 49 52 58 61 61 60 59 59
55 54 53 52 51 48 34 30 32 32 25 23 26 26 25 27 25 36 36 32 32 23 24 21 20 28 36 39 38 35 33 36 34 33 33 37 37 50 54 56 60 61 60 60 59
54 54 52 51 45 39 32 34 34 33 19 17 18 20 24 25 18 33 35 30 29 31 25 20 24 26 33 36 36 32 35 34 35 32 29 33 32 45 54 55 61 61 59 58 59
54 52 51 50 40 32 34 36 32 30 13 16 17 21 23 21 17 28 33 28 29 31 32 25 22 26 31 35 37 34 37 35 34 34 31 27 29 44 48 53 59 61 61 59 59
52 51 50 45 42 33 35 34 28 20 16 15 14 18 18 12 14 23 25 23 28 29 32 29 26 28 33 37 39 38 34 33 32 31 28 27 27 33 39 42 44 57 61 61 59
51 50 49 41 33 39 40 28 20 18 21 17 13 17 14 12 15 19 21 21 25 28 29 27 30 31 35 37 38 37 31 25 23 23 22 26 26 36 38 42 46 48 49 61 60
50 50 48 42 40 41 33 25 23 22 22 21 19 13 13 15 18 20 22 22 21 21 25 22 23 28 31 35 34 34 30 21 23 19 19 27 24 31 38 48 55 56 52 52 60
50 44 36 36 40 38 30 23 26 26 26 24 18 14 17 17 18 22 23 22 23 22 22 23 20 18 19 20 23 32 30 25 20 22 18 22 33 31 37 50 53 57 55 55 59
46 39 35 34 37 34 28 28 28 28 27 26 21 22 16 18 17 19 22 28 25 25 24 22 22 19 18 19 21 25 27 24 22 23 21 22 29 29 39 50 52 55 58 58 59
41 34 34 33 35 32 26 27 27 28 28 27 25 24 25 23 22 24 25 27 29 27 26 20 21 20 21 22 23 22 22 24 21 21 19 21 25 30 44 49 50 51 52 55 59
34 31 34 35 31 30 27 28 32 27 29 27 27 27 27 27 26 26 26 28 31 31 23 23 17 18 20 21 22 23 25 25 21 27 24 23 25 38 44 46 46 45 46 47 50
34 31 34 33 27 28 29 27 28 27 29 28 27 28 29 29 28 27 27 28 30 31 29 26 21 19 19 19 22 22 23 24 23 24 28 19 25 41 44 47 43 40 41 42 43
33 27 29 32 33 29 27 27 27 28 28 29 29 29 29 29 30 29 27 27 28 31 38 31 22 24 15 20 21 23 21 22 22 20 25 24 30 38 41 43 43 39 38 39 41
33 28 33 25 27 27 27 27 25 26 28 29 28 27 28 29 29 29 28 27 28 32 31 30 27 26 24 21 21 20 18 18 22 25 24 27 29 37 40 40 40 40 40 39 40
32 31 30 30 33 28 30 29 27 29 29 28 29 28 29 31 31 30 29 31 30 29 30 28 29 28 25 24 23 20 21 20 18 20 24 25 31 36 39 40 40 40 41 41 40
42 37 34 33 28 27 29 28 28 32 33 32 31 32 31 32 32 32 31 31 31 31 29 30 28 28 22 24 20 17 20 19 21 24 24 23 34 36 36 37 38 37 40 42 41

GFSSW_sfc_dewp_075.txt.gz
Dewpoint
55 56 56 56 56 56 56 56 57 57 56 56 56 57 56 56 55 49 32 42 45 67 71 56 56 58 59 57 60 61 59 53 53 54 58 60 59 60 61 58 58 58 58 57 59
55 56 55 56 56 56 56 56 56 56 56 56 56 56 57 56 45 35 53 62 67 71 60 50 46 54 55 55 58 58 58 51 53 56 58 60 60 60 58 57 57 57 57 58 59
55 55 54 54 55 55 55 56 56 56 56 56 56 56 57 55 42 23 63 62 62 69 51 42 42 51 51 53 57 56 54 52 53 55 59 60 61 62 57 56 56 56 57 58 58
55 54 54 55 55 55 55 55 55 55 55 55 56 56 57 49 26 47 62 63 64 58 50 38 40 47 47 49 56 55 54 52 51 53 56 59 59 57 59 61 59 57 58 58 58
54 54 54 54 55 55 55 55 55 55 55 55 55 56 53 35 24 55 59 59 46 51 43 37 38 44 44 46 55 54 51 51 50 48 50 55 57 60 61 61 60 59 58 57 57
54 54 54 54 54 54 55 54 54 54 54 55 55 56 44 24 37 48 42 36 38 47 40 36 37 40 36 40 49 53 52 49 47 45 46 53 56 58 61 60 60 59 57 57 56
54 54 54 53 54 54 54 53 53 54 55 55 56 52 36 25 39 40 36 30 37 42 37 35 33 32 35 38 43 48 49 47 44 43 48 54 56 57 60 59 58 57 56 56 56
54 53 53 54 54 54 54 53 54 57 57 56 56 48 35 29 40 41 42 35 37 38 32 32 35 34 33 38 39 44 45 42 43 44 49 54 55 58 60 60 57 56 56 56 57
54 54 54 54 54 53 52 53 55 56 57 56 52 48 28 51 39 42 40 32 33 34 33 35 36 35 34 32 35 38 38 38 42 43 47 52 54 57 60 59 57 57 55 55 56
55 55 53 53 54 53 53 52 55 57 54 51 44 37 37 31 34 36 39 35 30 32 32 32 30 33 30 31 28 29 33 34 39 43 46 50 59 58 59 59 58 58 58 56 56
55 55 55 54 52 52 50 48 46 45 39 32 26 29 24 30 36 34 33 34 29 29 27 27 24 27 27 27 23 26 30 32 36 42 42 44 53 55 58 58 59 60 61 58 57
55 55 55 53 52 52 49 37 28 29 27 29 25 24 28 36 33 33 36 30 30 26 24 24 23 26 25 24 23 27 27 32 35 41 41 37 36 50 54 57 60 60 60 59 58
55 54 53 52 52 47 39 29 30 29 26 23 24 21 26 31 28 30 33 31 28 26 22 22 19 23 22 26 28 32 30 33 34 34 38 33 34 45 48 53 60 61 60 61 59
53 53 52 52 44 33 30 30 29 29 24 19 20 20 24 24 23 30 32 30 29 22 19 21 19 20 24 29 33 29 28 30 32 33 30 34 30 43 46 49 60 60 60 58 59
53 53 52 50 44 31 31 29 28 29 17 16 17 20 22 22 21 29 30 29 26 25 24 21 17 20 27 32 33 29 28 29 33 31 29 31 31 45 48 50 57 59 59 59 60
53 52 51 47 43 30 30 31 29 22 18 13 14 17 20 21 17 27 26 28 27 27 29 24 21 20 22 28 33 34 33 32 31 29 25 28 25 44 44 54 55 57 60 59 59
52 51 50 45 33 33 32 30 24 19 19 13 14 15 19 18 15 23 26 25 22 25 28 28 27 23 23 27 34 36 33 28 27 24 22 25 23 38 41 43 44 53 56 59 61
51 50 48 41 37 36 34 28 24 19 20 18 15 16 14 12 14 19 23 19 20 25 25 22 22 22 24 30 33 34 30 22 24 19 19 26 25 36 45 52 54 53 51 58 59
50 43 39 35 36 37 32 28 27 24 23 20 16 15 13 13 16 19 20 19 20 24 24 23 21 26 27 31 33 32 31 26 20 18 16 24 33 38 47 50 54 58 54 49 59
45 36 32 33 34 34 29 28 26 25 24 22 18 16 15 15 16 19 24 25 22 24 25 26 23 22 23 24 28 27 30 27 24 24 21 22 31 31 45 49 53 55 56 60 62
42 34 32 32 33 31 26 26 25 26 26 25 25 20 25 22 17 18 23 25 25 24 25 20 25 23 22 22 22 24 26 28 24 21 20 21 29 40 49 51 51 49 51 52 55
33 29 32 30 29 27 26 26 31 25 27 26 26 24 25 26 23 26 24 27 28 26 17 20 20 22 21 23 23 24 23 26 23 28 22 22 29 43 49 49 48 46 46 48 49
31 25 29 30 27 24 26 22 25 25 27 25 25 27 26 24 26 22 24 26 29 27 27 25 18 20 21 21 24 23 24 24 22 22 28 20 33 43 49 46 45 43 44 45 45
28 24 25 28 29 26 24 23 21 25 26 28 28 28 28 27 26 24 23 25 27 28 39 38 20 26 19 21 21 23 21 23 23 22 24 25 38 41 45 44 41 41 42 43 44
28 24 30 24 22 24 24 23 21 21 23 26 27 27 28 27 27 26 25 26 26 35 32 28 24 25 22 19 20 21 21 20 22 23 22 34 38 40 42 44 42 41 40 41 42
32 30 25 27 28 24 28 25 23 26 28 25 25 22 27 31 32 28 27 28 27 28 29 26 27 26 23 22 20 18 18 19 19 22 24 32 37 39 40 42 43 44 43 41 41
37 35 30 32 25 23 24 24 25 29 29 29 30 29 27 30 31 31 31 32 32 33 29 31 25 27 23 22 21 19 19 19 18 20 25 29 37 40 39 40 40 42 42 42 42

GFSSW_sfc_dewp_078.txt.gz
Dewpoint
56 56 56 56 56 56 57 57 57 57 57 57 57 57 57 58 57 46 31 41 44 69 68 42 47 53 58 58 59 61 58 54 54 54 57 59 57 58 60 60 60 59 55 56 57
55 55 55 55 55 56 56 56 56 57 57 57 57 57 57 58 47 33 50 63 69 69 56 50 52 55 55 54 57 62 59 52 54 56 57 59 57 58 58 58 57 59 55 56 56
55 55 55 55 55 55 55 56 56 56 56 56 56 57 57 56 44 29 62 65 67 64 54 51 48 49 53 52 55 63 56 53 55 56 58 58 59 61 61 56 57 55 55 55 55
54 54 55 55 55 55 55 56 56 55 55 55 56 56 57 49 35 45 65 64 66 45 54 46 39 43 49 50 55 55 54 52 55 57 57 58 60 56 62 61 58 56 56 55 54
54 54 54 54 54 55 55 55 55 55 55 55 55 56 51 41 26 54 64 61 34 44 51 43 35 43 45 46 53 59 57 53 49 57 57 58 57 59 60 60 58 57 56 55 55
54 54 54 54 54 54 55 54 54 54 55 55 55 56 44 33 34 50 36 31 30 44 49 39 33 41 43 43 51 53 56 49 47 47 50 54 59 59 62 59 59 57 56 55 55
53 54 53 53 54 54 54 54 54 54 55 56 56 51 42 31 35 42 34 26 31 40 41 37 34 38 38 36 43 47 53 48 45 44 49 56 56 57 61 59 59 56 56 55 55
54 55 55 54 54 54 54 54 53 55 58 58 56 46 38 30 33 35 32 26 28 37 41 35 34 32 31 33 38 41 45 45 43 41 48 54 55 59 60 58 57 56 55 56 55
55 55 54 54 54 54 54 53 54 59 57 57 49 44 34 44 33 34 35 28 30 37 37 30 31 32 31 30 35 37 39 40 42 41 48 51 56 58 59 56 55 56 55 55 56
55 54 54 53 53 53 53 53 54 56 55 48 47 40 36 32 30 36 37 31 30 32 31 30 32 31 31 29 29 33 36 39 44 41 44 53 55 60 58 56 55 56 55 56 55
56 55 55 53 52 52 50 48 45 47 44 34 32 34 27 33 31 34 36 29 28 30 29 32 28 25 28 28 28 30 30 33 43 45 41 53 57 61 57 57 56 56 59 56 56
55 55 54 54 53 53 49 44 28 28 26 34 30 26 25 31 30 29 33 29 27 26 27 26 23 23 26 26 25 25 24 27 42 46 51 51 52 58 57 57 57 57 60 59 57
54 54 54 53 53 48 41 35 27 26 24 27 26 22 27 33 32 28 29 29 25 23 21 21 19 21 24 24 23 21 21 29 40 48 48 46 52 56 57 56 58 59 60 61 59
54 53 53 52 44 37 33 27 25 25 24 22 20 22 23 30 30 29 31 26 26 23 22 19 19 17 21 22 21 22 25 29 38 36 32 37 35 47 51 56 59 58 58 60 60
54 53 53 51 41 34 30 25 27 26 21 18 17 20 20 24 24 27 30 28 28 22 21 20 19 18 18 21 24 27 27 28 35 34 30 29 29 41 48 57 59 59 58 59 59
54 53 52 46 43 34 24 26 28 21 20 14 16 16 20 21 20 27 28 30 28 25 23 17 18 18 18 22 28 31 30 25 29 33 27 29 28 46 51 53 57 59 59 62 59
53 52 50 43 35 30 28 28 24 20 27 14 10 14 17 19 18 23 28 25 25 24 25 25 22 15 19 21 28 30 31 25 25 27 25 26 27 43 53 57 58 54 60 64 64
51 51 47 42 38 32 32 30 30 34 29 18 13 12 16 19 17 20 24 22 25 23 23 24 21 25 23 20 24 29 29 26 26 22 21 25 25 40 50 59 60 53 55 59 61
50 43 40 41 42 34 33 32 35 36 22 18 12 13 14 13 13 17 23 23 22 22 24 28 24 23 23 21 24 29 30 30 23 22 19 26 40 46 51 53 56 57 57 61 64
43 39 39 28 31 38 35 32 28 22 21 21 18 15 14 12 14 19 19 23 25 23 26 26 27 24 20 21 27 31 31 27 27 26 26 29 37 41 48 51 54 53 53 55 59
42 37 33 23 27 37 36 25 23 22 21 25 25 24 25 20 23 26 30 28 25 23 25 24 28 26 26 25 27 30 33 29 26 26 25 30 37 46 50 52 51 50 50 50 54
40 34 28 23 29 25 24 23 30 23 21 21 23 25 25 27 29 27 32 28 25 24 22 23 20 28 22 21 23 26 27 27 26 31 27 37 41 49 50 49 49 49 49 47 49
37 23 25 28 34 28 24 20 23 23 24 22 23 23 26 25 29 27 28 25 26 23 32 30 20 23 22 20 22 21 23 24 23 25 32 32 37 48 48 48 47 47 48 47 46
36 24 23 24 22 23 23 20 18 19 23 27 26 25 23 23 25 28 22 22 24 25 41 37 21 28 30 26 22 22 22 23 21 21 24 34 44 47 47 47 46 45 46 46 46
31 19 26 23 20 22 24 21 19 20 19 23 27 26 30 34 23 24 23 22 23 32 26 24 22 23 25 22 19 20 19 20 22 25 30 40 43 45 47 46 45 44 44 44 43
31 30 24 25 26 24 27 23 21 23 27 22 22 20 25 39 39 37 34 25 23 24 24 24 26 31 26 22 20 19 19 19 20 20 25 37 39 43 45 45 44 44 44 43 44
36 33 32 31 24 20 20 21 22 27 25 27 28 28 25 31 31 36 31 32 39 33 28 28 25 31 27 23 22 20 20 19 19 21 40 40 41 41 42 43 44 44 43 43 43

GFSSW_sfc_dewp_081.txt.gz
Dewpoint
56 56 56 56 56 56 56 56 57 57 57 57 57 57 58 59 58 52 34 40 45 63 67 47 37 37 44 59 60 63 59 55 55 54 56 59 59 61 65 60 60 56 56 57 61
55 55 55 56 55 56 56 56 56 57 57 57 57 57 58 59 52 43 48 62 68 68 37 45 39 43 48 56 62 62 58 55 57 57 57 59 59 62 62 61 59 55 57 57 60
55 55 54 55 55 55 56 56 56 56 56 56 56 57 58 57 49 37 65 63 70 66 33 49 49 52 52 54 63 60 58 57 55 57 58 58 58 63 61 58 56 54 55 56 60
54 54 54 54 54 55 55 55 56 56 55 56 56 56 58 52 40 43 69 63 67 47 38 50 51 47 47 51 62 58 60 58 58 58 58 59 62 62 64 62 57 55 55 55 57
54 54 54 54 54 54 54 55 54 54 55 55 56 56 54 46 37 51 66 64 48 38 40 51 50 39 42 48 55 58 55 56 57 57 59 60 61 61 62 64 57 55 55 55 55
53 53 54 53 54 54 54 54 54 54 54 55 56 56 51 33 47 52 45 42 25 31 41 51 45 36 41 44 54 56 53 54 58 57 57 58 59 58 60 57 56 55 55 54 55
55 55 54 54 54 54 54 54 54 54 55 56 57 52 42 37 45 45 36 26 21 31 47 49 47 33 38 40 44 57 50 54 55 57 58 60 59 58 59 60 56 55 55 54 55
55 55 54 54 54 54 54 55 54 54 56 58 57 50 39 34 35 40 33 25 26 32 45 43 38 34 31 34 33 50 52 50 47 49 58 56 55 61 59 60 58 55 55 55 55
54 54 54 53 53 53 54 54 54 55 58 58 53 49 38 44 32 34 32 27 22 31 35 40 34 32 31 30 29 35 39 44 47 49 55 54 57 63 60 60 57 55 55 55 55
54 54 54 53 53 53 53 53 53 54 56 49 43 41 39 34 29 31 33 26 25 31 35 34 30 31 31 30 27 34 36 38 43 43 54 55 55 62 63 60 57 55 55 55 56
54 54 53 54 54 53 51 49 46 47 48 36 36 41 33 36 31 31 36 31 29 32 31 30 29 29 30 31 29 31 35 36 43 49 53 53 53 55 59 60 57 55 55 55 56
54 53 53 54 54 53 50 45 44 26 26 41 33 33 34 31 27 34 35 28 28 28 29 29 29 30 28 29 29 27 24 30 44 52 55 53 52 52 51 58 56 55 56 55 56
54 53 53 54 53 49 44 41 39 25 24 23 33 31 25 29 28 30 34 29 25 26 27 27 28 29 23 25 26 25 24 26 43 47 53 53 54 54 57 58 56 57 59 57 57
54 53 53 53 48 40 37 38 37 27 23 24 28 25 24 32 31 30 30 30 25 24 24 24 24 23 20 20 24 22 24 23 44 43 43 53 45 53 58 56 56 56 59 58 58
55 55 54 52 47 36 34 24 26 27 22 25 20 22 21 24 31 30 29 28 26 22 23 21 19 18 17 18 22 22 23 29 40 40 40 47 44 51 56 56 58 59 59 58 58
55 54 53 49 48 41 37 35 29 24 24 25 17 17 17 22 23 27 30 30 27 27 24 22 21 18 20 18 20 23 25 30 37 37 34 33 36 47 55 55 58 60 59 59 61
53 52 51 47 39 38 35 31 28 31 38 23 17 16 17 21 21 23 27 27 27 24 25 24 20 17 17 18 21 24 29 29 25 32 33 34 33 49 56 59 59 60 59 58 60
52 51 50 46 39 40 37 38 36 34 33 32 29 14 14 18 20 25 27 25 26 26 24 24 22 24 16 20 22 26 29 29 24 26 29 28 43 48 53 54 56 53 59 59 61
50 47 45 42 44 43 42 39 35 34 33 27 19 16 15 16 18 19 24 25 23 24 23 27 26 25 23 21 21 25 25 29 27 25 24 40 48 52 52 54 56 57 60 61 64
47 42 38 40 41 42 37 36 32 32 21 25 27 27 24 20 19 18 27 27 23 24 27 29 26 28 28 25 20 20 32 27 30 29 25 43 46 50 54 53 51 51 52 56 59
48 41 38 33 36 42 34 34 27 22 20 27 25 27 27 29 29 32 31 26 25 25 25 25 29 29 28 20 18 32 33 37 30 30 26 36 43 53 54 50 49 48 49 52 54
43 40 41 26 35 40 35 26 29 22 26 24 25 26 31 31 31 34 32 33 25 26 23 31 19 30 29 28 26 25 32 34 30 28 38 42 43 53 52 49 48 48 47 49 53
44 40 30 32 33 35 29 20 20 22 24 26 25 26 25 29 34 33 33 24 25 28 31 31 26 24 28 27 22 21 23 22 25 26 31 38 43 49 51 50 47 46 46 46 48
45 34 34 33 27 24 27 24 22 16 20 24 29 29 26 28 29 29 29 22 24 24 47 40 23 24 29 30 27 22 21 22 26 22 38 38 46 46 45 45 45 45 46 46 47
46 26 33 27 26 25 29 25 20 22 24 25 32 30 35 35 35 27 33 27 25 38 29 26 24 25 28 29 25 21 20 21 22 27 37 45 45 46 46 44 44 43 43 43 45
40 36 36 29 33 34 32 28 22 23 27 26 28 24 39 38 38 37 37 35 31 33 23 24 28 29 27 27 24 21 22 21 21 38 43 44 45 47 45 44 44 43 43 42 43
46 46 45 37 30 24 25 23 21 31 28 27 30 33 34 33 38 41 39 36 41 34 34 29 31 32 25 31 26 23 23 21 37 40 40 43 43 44 43 43 43 43 43 43 43

GFSSW_sfc_dewp_084.txt.gz
Dewpoint
56 56 56 56 56 56 56 56 57 57 57 57 57 57 57 59 58 54 38 34 43 64 66 52 53 39 38 47 62 65 60 55 56 54 56 61 60 63 65 57 57 57 58 60 63
55 55 55 54 55 55 56 56 56 57 57 57 57 57 57 58 54 48 49 58 63 64 50 41 38 37 42 50 61 63 57 56 58 57 57 60 61 62 61 57 57 56 60 63 64
54 54 54 54 54 55 55 55 56 56 56 56 56 56 57 57 50 44 61 62 64 66 36 37 42 41 43 53 61 61 58 59 58 56 57 59 61 63 60 60 57 56 60 61 61
54 54 54 54 54 54 54 54 55 55 55 56 56 56 57 54 39 44 69 62 69 57 36 36 49 47 49 52 61 56 59 60 57 57 57 59 63 60 64 62 57 57 60 60 61
54 53 53 54 54 54 54 54 54 54 54 55 56 56 53 45 40 45 69 64 61 43 34 39 50 50 46 47 59 59 57 61 58 58 58 62 62 61 63 63 59 57 59 60 61
55 55 54 54 54 54 54 54 54 54 55 54 55 56 50 25 37 55 52 46 36 34 34 45 51 49 41 40 56 57 55 63 61 58 60 60 61 60 62 62 56 55 58 60 61
55 54 54 54 54 54 54 54 54 55 54 55 56 53 47 33 42 51 42 35 27 29 40 38 49 49 36 35 43 52 51 57 57 59 60 61 58 58 60 61 55 54 54 56 59
54 54 54 54 54 53 53 53 54 55 55 56 56 51 39 40 37 39 38 25 24 28 36 48 48 42 33 33 46 54 52 48 55 57 59 57 55 60 62 58 55 54 54 55 55
54 55 54 54 53 53 53 54 54 55 56 58 50 48 35 46 37 35 33 26 21 28 32 36 39 36 31 30 29 47 48 48 52 57 58 57 57 63 61 60 55 54 54 55 55
54 54 53 53 53 54 54 54 53 54 55 52 47 42 40 35 31 33 34 28 22 26 31 33 34 30 30 30 26 28 36 41 48 56 58 58 58 61 62 61 56 54 55 54 55
54 53 53 53 53 53 50 48 45 46 49 33 35 41 39 37 32 30 32 26 25 30 32 33 27 26 28 30 31 30 30 35 48 56 56 57 56 58 60 61 58 55 55 55 56
54 54 53 53 54 53 48 44 44 35 25 43 36 40 38 38 30 30 35 28 27 28 32 29 27 29 30 31 30 30 29 28 52 53 53 55 56 57 59 61 60 56 55 55 56
54 55 54 52 52 48 45 41 43 36 25 23 38 37 35 32 31 28 34 29 27 28 29 28 29 31 31 29 27 26 27 28 46 53 54 54 52 53 55 57 61 59 56 57 56
55 55 54 53 46 42 39 38 39 34 21 21 23 32 29 29 28 32 34 30 27 25 27 27 28 29 29 29 24 24 26 26 47 45 43 50 41 54 55 54 59 57 56 57 57
55 55 53 52 44 36 34 35 35 25 20 32 28 28 22 27 31 30 31 30 25 23 24 23 24 24 23 25 22 21 25 26 41 42 49 48 47 48 56 57 58 59 59 59 58
55 54 52 49 48 44 42 40 28 23 23 34 20 20 19 22 24 29 28 30 30 28 27 23 24 20 20 19 19 21 28 38 39 39 36 42 45 46 54 55 57 61 61 60 59
53 52 50 47 35 39 38 35 31 32 36 32 28 28 18 20 21 25 29 28 27 25 25 25 25 22 20 17 19 21 28 27 26 32 33 37 44 43 54 58 58 60 59 60 59
51 51 50 48 45 40 40 36 30 32 32 35 31 26 17 19 21 24 27 26 27 27 25 23 21 23 22 17 17 21 27 29 24 28 30 38 42 47 57 59 60 60 60 58 59
50 46 46 45 47 43 38 34 29 32 32 31 27 22 23 18 19 26 26 26 25 25 23 23 25 30 29 20 20 21 24 28 26 27 24 45 48 50 55 54 55 56 59 60 64
46 41 38 39 43 40 34 34 33 34 31 30 26 27 27 27 29 26 26 26 24 25 26 25 25 26 26 25 21 19 27 28 28 27 25 44 46 47 52 50 51 52 54 56 58
45 37 39 40 40 35 29 32 31 28 30 26 25 28 29 29 31 33 30 26 25 25 26 30 22 21 29 25 20 28 29 33 30 29 26 38 43 54 51 50 49 50 52 54 57
42 37 41 31 28 38 34 30 29 22 25 24 23 27 30 31 31 32 30 26 26 29 26 33 21 20 30 30 30 31 30 32 30 28 39 41 46 53 52 52 50 49 50 52 55
39 40 37 32 27 32 29 20 19 16 21 24 25 23 30 31 31 32 31 25 25 26 23 26 22 23 25 26 29 22 21 26 28 32 36 32 43 51 52 51 48 47 48 50 53
41 36 27 26 24 22 22 20 17 16 19 22 27 29 31 31 32 28 29 23 25 24 48 36 21 23 24 29 29 22 21 21 24 22 37 41 45 46 47 46 46 46 46 48 50
43 34 23 18 19 19 22 24 23 23 26 27 27 32 31 27 33 35 35 33 25 37 26 24 24 25 25 25 25 24 22 23 23 26 34 44 44 45 45 44 44 45 46 46 46
36 38 40 32 26 20 27 22 22 23 26 27 32 36 37 33 37 34 35 32 35 34 30 26 30 27 26 31 29 24 24 31 37 43 45 46 44 45 45 44 42 42 43 45 45
49 46 42 39 25 20 23 24 29 27 29 31 35 32 29 32 37 38 38 36 34 35 29 32 29 28 27 32 26 24 26 26 40 44 46 44 45 44 43 43 42 41 42 43 44

GFSSW_sfc_dewp_087.txt.gz
Dewpoint
54 54 54 54 54 55 55 56 56 57 56 56 57 57 57 57 58 55 39 31 41 63 66 59 55 45 38 43 60 66 59 55 56 54 56 60 60 62 64 58 59 60 61 63 64
54 54 54 54 54 54 54 55 55 55 55 55 56 57 57 57 54 49 48 52 57 68 50 44 44 44 50 45 61 62 56 55 58 56 57 61 61 62 58 57 59 60 61 63 64
54 54 54 54 54 54 54 54 54 54 55 55 55 56 57 57 46 33 59 61 63 65 41 39 38 42 39 55 59 61 57 59 56 56 60 60 62 62 56 57 58 59 61 62 63
54 54 54 54 54 54 54 54 54 54 54 54 55 56 57 54 19 44 68 62 64 60 42 33 46 46 52 51 61 55 58 60 57 59 60 60 62 60 61 61 59 62 62 62 62
54 55 54 54 54 54 54 54 54 54 54 54 54 56 52 39 32 32 70 61 64 50 37 39 48 54 52 53 59 57 59 60 57 59 60 62 60 60 62 64 61 62 62 62 62
54 54 54 54 54 54 54 54 54 53 54 54 54 56 48 12 16 52 55 58 50 37 33 40 50 53 48 48 57 59 59 60 59 57 61 60 59 61 61 61 60 60 61 61 62
54 54 53 53 53 53 53 53 53 53 54 53 54 53 46 24 44 50 47 41 32 32 31 36 49 50 46 38 44 57 57 58 60 59 60 61 59 58 62 59 59 59 60 60 61
54 54 54 53 53 53 53 53 53 54 54 54 55 51 30 35 39 35 41 31 29 28 34 42 41 46 42 40 44 53 55 53 56 59 61 59 55 61 62 61 58 58 59 60 61
54 54 53 53 53 52 53 54 54 55 54 55 49 45 30 45 37 32 39 27 23 24 33 32 40 38 34 30 28 39 47 48 56 61 60 58 57 61 61 60 54 56 57 59 60
54 53 53 53 52 53 53 53 53 53 55 54 48 41 39 34 34 34 36 25 22 23 30 32 34 31 30 29 27 33 44 47 51 58 59 57 57 60 61 61 55 53 54 55 57
54 53 53 53 52 53 50 48 44 43 48 28 32 39 39 38 35 32 33 26 26 30 30 34 30 27 29 30 30 31 30 29 50 57 57 56 57 59 61 61 56 54 55 54 55
54 54 54 53 52 51 48 39 41 37 33 40 37 39 40 37 34 30 30 25 26 25 31 30 28 28 28 30 31 32 30 37 54 57 56 57 55 58 60 61 59 56 55 55 55
54 53 53 53 52 47 42 38 41 43 30 25 40 36 34 35 32 30 29 29 25 27 30 29 28 31 30 30 29 27 27 28 50 54 55 55 53 55 59 59 62 62 59 57 55
54 54 55 53 44 42 39 39 37 35 21 22 24 28 33 30 28 31 33 29 28 25 29 28 30 29 30 30 27 29 26 29 51 48 46 52 44 52 55 55 58 61 59 57 55
55 55 53 50 44 36 35 41 38 25 22 31 31 28 25 28 29 30 34 30 24 25 26 26 26 26 27 28 26 25 25 26 49 43 46 49 44 45 53 52 55 61 58 58 58
55 54 52 49 47 45 45 39 28 26 25 33 31 29 20 22 25 29 29 30 29 26 27 25 25 24 24 24 25 24 25 33 39 39 39 42 42 44 52 52 55 60 59 58 58
53 52 50 47 34 40 39 37 28 26 34 30 28 30 23 19 22 26 27 27 26 24 24 26 26 24 21 20 20 24 26 26 34 35 35 40 44 42 54 56 57 59 59 59 61
51 50 49 49 45 42 39 30 27 31 32 33 32 29 26 19 21 24 27 26 28 26 25 24 21 23 22 21 18 21 21 26 25 30 32 43 40 47 55 59 60 61 62 61 63
50 45 45 45 48 43 36 30 26 31 29 30 26 25 26 24 20 26 27 26 26 26 24 23 24 28 28 22 19 22 25 27 26 31 27 44 47 53 54 53 57 59 59 59 62
43 41 38 43 44 36 32 32 31 33 31 29 24 28 26 28 29 26 26 26 24 26 25 26 25 26 27 26 22 20 26 24 27 26 26 43 44 45 53 51 53 56 56 58 60
42 37 38 43 38 32 26 30 32 28 33 25 25 29 29 29 32 31 29 25 26 27 28 29 24 20 29 25 21 23 30 32 29 29 29 38 42 51 52 51 51 53 54 57 58
41 32 40 35 31 37 31 31 28 19 25 26 24 26 29 32 33 30 24 25 26 29 24 29 20 21 28 26 29 23 24 32 28 31 37 39 42 52 51 51 51 51 52 55 57
37 37 41 31 24 30 30 20 16 18 19 24 26 25 32 30 30 30 29 24 24 24 22 25 22 23 25 28 29 22 21 29 29 35 37 34 39 52 52 50 49 49 51 53 55
39 24 26 24 25 23 21 21 16 26 27 25 28 30 30 30 35 32 33 30 26 27 46 33 21 23 27 28 28 24 22 23 23 22 33 35 46 49 48 47 46 46 49 51 52
41 31 28 19 20 22 24 24 25 24 27 30 34 35 29 31 33 33 33 32 31 39 25 24 25 26 28 27 27 24 24 30 23 26 34 40 44 48 47 46 46 46 47 47 48
38 39 41 34 26 20 25 22 24 23 26 29 33 34 35 32 35 31 34 32 34 32 30 29 28 27 28 33 28 26 27 27 41 45 45 44 42 46 45 44 44 45 46 45 46
47 46 41 39 22 22 22 23 30 28 30 33 35 31 28 30 37 36 37 35 31 33 26 30 27 27 28 30 34 32 28 28 39 45 45 42 43 45 43 43 43 43 45 45 46

GFSSW_sfc_dewp_090.txt.gz
Dewpoint
54 54 54 54 54 54 54 54 55 54 55 55 55 56 57 57 57 55 37 30 42 54 66 61 51 45 40 52 58 65 59 56 55 54 56 60 59 62 63 58 59 61 61 64 66
54 54 54 53 54 54 54 54 54 54 54 55 54 55 57 57 54 48 47 51 55 66 54 48 46 44 47 44 61 61 55 56 58 56 58 60 59 61 58 58 59 62 63 65 66
54 54 54 54 54 53 53 53 53 54 54 54 54 56 57 56 43 22 58 56 61 69 45 44 42 52 53 53 58 61 56 59 56 57 60 61 61 62 58 58 58 61 62 64 64
54 54 54 54 55 54 54 53 53 53 53 54 54 55 57 53 5 45 64 61 64 59 35 41 41 55 52 50 60 55 59 59 57 59 60 59 63 57 60 59 60 62 63 64 63
54 54 53 53 54 54 54 54 53 53 53 54 54 54 51 35 25 33 69 61 59 51 36 39 52 57 52 55 59 57 60 58 59 58 60 61 60 58 60 60 62 62 62 62 62
54 54 53 53 53 53 53 53 53 53 53 53 53 55 46 21 23 52 56 60 55 43 35 43 53 57 55 53 57 59 60 57 59 60 61 59 60 59 60 63 61 61 61 61 62
54 54 54 53 53 53 53 53 52 52 53 53 52 53 45 25 37 53 53 46 44 32 33 34 51 50 50 46 57 57 57 58 57 60 60 60 59 58 61 63 61 61 61 61 62
53 53 53 53 53 53 52 52 53 53 53 53 54 50 26 30 38 37 38 31 30 27 33 34 43 46 45 42 48 54 55 53 58 59 61 59 55 61 62 61 60 61 61 61 62
54 53 53 53 52 52 52 54 54 54 53 54 48 44 25 43 37 34 38 27 26 26 29 32 42 40 35 30 31 47 47 50 55 59 59 58 56 61 62 59 59 59 60 60 61
53 53 53 53 52 51 53 53 53 54 55 54 49 41 37 34 36 31 37 21 21 24 30 32 33 32 30 29 29 41 45 48 52 56 60 58 57 60 61 59 58 59 59 60 61
54 53 53 53 52 51 49 48 40 37 47 26 27 35 36 38 35 34 35 29 28 29 30 33 33 32 37 30 31 37 38 40 48 57 58 57 57 58 59 60 56 57 59 59 59
53 53 53 52 52 51 48 36 36 37 33 40 40 37 37 37 32 30 31 27 25 26 32 30 31 32 37 30 30 31 30 48 56 59 57 55 56 57 59 61 57 55 55 56 58
53 53 53 52 52 48 41 35 39 41 31 26 39 36 32 35 32 31 30 26 25 29 30 30 30 30 29 29 28 28 28 30 50 55 57 55 54 56 59 61 62 62 56 55 56
55 54 53 52 43 42 38 39 39 36 23 25 30 29 34 33 28 32 31 29 27 27 30 30 31 30 30 29 28 31 27 33 53 50 46 54 47 54 56 58 59 61 59 55 56
55 55 53 50 42 37 35 41 37 26 21 30 33 30 28 26 28 31 33 30 26 26 28 28 26 28 28 28 28 27 26 28 51 46 48 50 44 43 56 55 57 59 61 57 56
54 54 51 48 47 44 44 39 28 25 23 30 33 30 20 22 26 29 31 31 28 26 27 27 26 26 26 27 28 31 25 36 40 43 40 44 43 42 52 53 56 58 60 59 56
53 52 49 47 33 41 40 34 27 24 32 24 26 30 29 20 22 26 28 28 26 24 28 27 26 25 22 20 22 24 22 26 35 37 36 41 43 41 54 57 56 56 60 60 58
51 50 49 49 45 42 36 28 25 28 31 31 31 26 28 21 22 26 26 26 28 26 25 23 21 25 24 23 21 21 21 26 30 33 35 44 39 43 54 57 61 60 61 61 62
50 43 44 44 48 43 34 29 23 29 28 28 27 26 27 27 21 26 26 26 27 26 24 23 23 27 23 20 20 23 19 22 26 29 34 42 46 52 55 56 59 59 60 62 63
45 40 37 44 45 35 30 31 32 31 31 26 25 29 27 29 29 28 26 26 25 26 28 24 23 26 27 23 25 24 27 26 26 25 26 42 43 43 53 54 57 57 57 60 61
41 36 38 44 38 32 26 29 32 25 33 25 26 29 29 30 32 29 25 25 26 28 27 27 25 22 28 25 20 26 31 29 29 29 33 37 41 50 52 54 55 55 58 59 60
37 30 39 35 31 36 30 31 27 17 23 27 25 25 30 32 34 27 23 25 25 29 26 28 20 23 26 27 27 24 26 31 27 31 37 37 37 51 52 52 54 54 57 58 59
37 35 41 32 23 26 31 20 24 21 25 24 27 30 35 33 32 34 27 26 27 24 23 25 23 24 22 25 26 23 23 26 30 37 38 32 33 51 51 50 51 51 54 56 56
38 21 28 23 24 25 26 20 22 27 30 30 32 30 31 34 38 35 34 32 32 39 42 34 24 25 23 24 26 23 26 30 23 26 32 33 41 50 49 48 47 48 51 53 55
37 30 33 20 23 27 25 23 25 23 27 33 33 35 28 29 30 34 34 31 32 39 28 26 25 27 28 27 26 28 27 31 38 25 31 33 42 47 49 47 46 48 50 50 52
37 37 40 36 29 21 25 27 24 24 28 31 32 32 34 34 34 31 30 30 32 30 30 30 29 28 29 31 34 32 30 36 43 45 44 44 43 47 47 46 46 47 47 47 49
47 45 39 38 23 23 22 25 27 30 28 32 34 30 27 29 34 33 35 33 28 31 26 30 27 27 26 30 34 31 30 39 42 45 44 41 43 46 45 46 46 46 46 47 48

GFSSW_sfc_dewp_093.txt.gz
Dewpoint
54 54 54 53 54 54 54 54 54 54 54 54 55 55 56 56 56 53 29 31 38 62 65 56 52 50 54 60 60 64 60 56 55 54 57 61 59 60 60 58 59 60 57 62 66
54 54 54 54 54 54 54 54 53 54 54 54 54 55 56 57 51 42 45 49 56 63 52 40 39 45 48 50 57 60 59 56 56 56 58 60 59 58 57 58 61 62 64 65 66
55 55 55 55 54 54 54 54 54 54 54 53 54 55 55 56 39 10 59 56 57 65 49 41 39 53 56 48 55 60 57 58 56 57 59 58 59 58 57 56 59 60 62 64 64
54 54 54 54 54 54 54 54 54 53 54 53 54 54 56 54 2 44 65 59 64 51 42 40 44 56 56 49 57 55 58 59 56 59 60 58 59 56 56 58 59 61 63 64 63
54 54 53 53 54 53 53 53 53 53 53 53 53 54 51 33 27 26 66 61 61 45 38 38 43 56 52 55 57 56 58 57 58 59 59 61 57 57 59 59 61 63 63 62 61
54 54 53 53 53 53 53 53 53 52 52 53 53 54 45 25 34 55 54 56 52 39 35 42 51 57 54 53 56 58 58 58 58 59 59 58 58 57 61 60 61 61 61 61 61
54 53 53 53 53 52 52 52 52 52 52 53 53 53 42 23 35 56 48 45 43 35 32 39 53 52 52 46 51 58 56 57 58 59 59 61 57 58 62 60 59 59 60 61 62
54 54 53 53 52 52 51 51 52 53 53 52 54 52 23 28 36 49 38 36 36 31 32 33 49 49 47 46 51 56 55 53 57 58 63 60 55 59 63 61 59 59 60 61 62
54 53 53 53 52 52 51 52 53 53 53 54 50 44 21 44 35 39 36 31 35 27 26 32 37 43 38 34 51 52 50 52 55 59 60 59 56 60 63 61 57 59 59 60 62
54 53 53 53 52 52 52 52 56 56 54 53 49 41 36 33 35 36 35 28 26 25 29 33 36 41 34 30 38 49 48 50 52 56 58 57 58 61 63 61 58 59 59 60 60
54 53 53 52 52 51 48 50 40 39 48 32 30 31 31 37 33 32 34 24 25 27 30 35 40 41 38 32 34 48 47 46 48 56 56 56 58 59 61 59 59 59 59 60 61
55 53 53 53 52 51 48 34 37 36 34 38 40 36 34 36 28 32 34 23 23 20 31 35 39 39 36 31 30 34 40 38 54 56 56 56 56 58 59 58 59 59 59 59 60
56 54 53 53 52 49 41 34 39 37 32 27 34 35 32 32 28 31 31 25 22 29 32 31 36 34 34 32 29 30 30 50 48 56 55 54 53 55 58 60 59 59 59 59 59
56 54 53 52 45 43 37 39 39 38 25 29 30 30 34 33 30 32 31 24 26 25 33 36 31 32 29 30 30 29 29 39 53 49 49 52 46 51 55 58 60 57 57 57 59
55 53 52 51 43 38 35 41 38 29 21 30 32 32 31 27 29 30 32 30 25 29 31 31 30 30 30 29 30 30 28 34 51 48 49 48 48 47 55 55 59 60 58 55 57
54 52 51 48 48 43 43 37 30 25 20 28 29 29 24 23 27 31 31 31 29 28 29 29 28 29 29 29 32 31 35 41 46 45 37 45 43 42 52 54 56 59 60 59 56
53 51 49 46 35 41 41 36 27 24 31 24 26 29 29 21 25 29 29 29 29 26 28 28 26 25 25 24 29 26 22 31 31 34 26 42 45 41 53 56 57 56 59 61 58
51 50 50 48 47 44 38 31 25 27 28 30 28 25 25 22 23 27 30 29 28 27 25 25 23 26 25 25 23 26 23 26 28 31 31 44 37 42 54 57 60 60 58 61 60
50 45 44 43 47 45 36 29 25 27 27 27 27 27 27 24 23 27 28 30 29 28 25 24 22 26 24 25 24 24 21 25 30 32 31 40 45 52 56 58 59 58 58 60 61
47 42 40 44 45 37 33 31 30 30 31 27 27 29 28 28 27 28 27 26 25 27 28 28 24 26 27 22 25 25 25 22 26 30 29 41 43 43 53 56 58 59 60 62 63
42 39 40 44 40 36 28 29 31 27 31 24 25 29 30 31 31 30 25 23 24 27 28 27 27 26 29 27 23 26 25 29 27 30 26 30 38 53 54 56 57 58 59 60 62
38 34 41 37 34 36 32 31 29 18 24 27 26 30 32 33 31 25 23 24 24 28 25 27 25 27 25 26 26 25 31 31 21 33 39 35 37 52 54 57 57 58 59 60 61
39 37 41 36 27 28 31 19 26 24 27 28 28 32 35 34 34 34 30 26 29 24 28 29 27 25 24 25 28 30 28 31 34 38 39 26 32 52 54 56 56 56 58 58 59
40 28 30 28 27 27 23 21 24 27 31 32 35 31 33 35 39 35 33 32 33 36 41 38 27 29 23 27 28 32 35 27 27 24 35 32 41 50 52 53 53 53 56 57 57
38 32 31 25 26 25 26 25 24 25 28 35 34 34 30 32 32 33 33 33 35 39 32 32 30 30 30 30 30 32 38 39 27 29 29 34 37 47 52 53 53 54 54 54 56
41 40 40 38 28 25 29 26 23 24 30 32 32 31 35 36 34 31 31 32 30 34 35 33 34 32 30 31 33 28 34 42 42 42 42 43 41 48 52 52 51 53 53 53 55
48 47 41 36 25 24 25 27 28 30 29 33 33 31 30 30 32 36 32 28 30 30 32 34 31 35 30 32 33 30 31 34 39 44 43 37 45 50 50 50 51 52 53 52 53

GFSSW_sfc_dewp_096.txt.gz
Dewpoint
54 54 54 54 54 54 54 54 54 54 54 54 54 55 56 56 57 49 30 29 36 62 63 47 53 60 61 62 61 64 61 56 55 52 56 60 58 60 59 59 57 58 52 61 63
55 55 55 55 55 54 54 54 54 54 54 54 54 55 56 56 47 38 48 47 57 64 47 43 48 57 57 57 57 60 60 56 56 54 57 59 58 59 58 58 57 54 58 61 63
55 55 54 54 54 54 54 54 54 54 53 54 54 55 55 55 40 13 57 55 59 63 43 36 45 56 57 55 56 59 57 58 55 56 57 57 58 58 57 57 58 57 59 61 62
55 55 54 54 54 53 53 54 54 54 53 54 54 54 55 49 15 41 65 60 61 50 42 35 40 53 57 52 55 54 57 57 55 57 56 57 59 56 57 55 57 58 60 61 61
54 54 54 53 53 53 53 53 53 53 53 53 54 54 50 37 28 37 63 59 46 46 37 33 34 51 55 56 55 56 57 56 56 58 59 58 55 55 57 57 58 57 59 59 59
54 54 54 54 53 53 53 53 53 53 52 53 54 55 41 25 32 50 43 46 43 39 35 32 34 52 55 55 55 57 56 56 57 58 59 55 55 55 57 58 57 58 58 58 58
54 54 53 53 53 53 52 52 52 52 53 53 54 50 37 24 34 50 43 44 41 35 35 34 41 54 52 48 54 57 55 56 57 58 57 58 55 57 57 57 57 57 56 57 57
54 54 54 53 53 52 52 52 51 53 53 53 54 47 23 26 37 44 38 41 39 33 32 41 54 51 47 47 57 56 55 54 57 59 61 59 55 58 59 56 55 55 57 57 58
54 54 53 53 53 52 52 52 53 54 54 54 50 41 21 39 32 34 26 27 28 29 30 38 50 48 44 47 52 56 52 52 56 58 60 59 56 61 62 59 53 55 56 57 58
55 54 53 53 52 52 52 52 55 55 53 50 45 41 32 31 34 34 31 29 26 26 26 38 47 46 39 41 46 50 50 50 53 57 58 59 55 61 63 60 54 55 55 57 57
56 55 53 53 52 52 49 49 45 45 45 33 28 29 27 34 36 32 29 26 25 22 22 30 40 44 40 37 35 49 50 48 52 57 58 57 57 60 62 62 56 55 55 55 56
56 54 53 53 52 52 47 35 36 35 31 33 34 33 31 31 31 33 27 24 23 17 25 27 34 42 43 34 36 43 47 46 51 55 55 57 57 60 62 61 59 54 54 54 55
56 54 53 52 52 49 39 35 37 37 32 28 29 28 29 30 28 30 31 25 21 16 25 21 25 41 40 33 34 38 42 43 49 54 54 55 54 55 58 62 60 57 55 56 58
56 53 53 52 47 41 36 38 37 38 26 27 27 28 31 30 28 30 28 25 19 16 19 19 27 36 38 38 34 34 33 45 51 49 49 52 47 51 54 59 61 57 56 55 57
55 53 52 51 45 37 36 38 38 34 19 26 27 31 30 29 30 28 28 26 21 16 24 23 28 34 34 38 37 33 31 38 44 46 49 50 44 49 55 53 58 59 56 55 56
54 52 51 48 47 39 39 37 34 25 21 24 26 26 26 26 27 28 30 29 26 22 25 26 31 31 31 34 36 32 31 36 42 42 41 43 41 44 48 52 52 58 58 57 55
52 51 50 44 36 39 38 38 27 20 27 23 24 25 25 24 26 28 29 28 25 24 20 26 29 29 30 32 34 34 32 30 31 32 31 42 40 40 46 55 54 57 58 58 56
50 50 50 44 43 41 39 32 23 23 24 26 26 25 21 22 25 27 28 25 28 24 18 23 22 27 27 27 30 34 31 30 32 30 29 38 39 40 50 55 57 57 58 59 59
50 45 42 41 44 43 37 24 23 24 24 24 25 22 22 21 23 27 27 25 26 26 23 21 21 24 24 25 25 30 31 31 29 32 29 34 37 51 53 55 57 57 57 57 60
46 40 40 43 44 39 30 27 25 26 26 25 24 28 23 20 22 24 26 28 27 28 29 26 22 21 23 23 24 23 27 28 28 31 28 31 35 34 52 54 58 57 57 57 60
44 32 41 43 41 34 25 26 25 23 26 24 23 27 28 24 23 23 27 26 27 28 31 27 24 23 23 23 20 23 22 22 25 27 25 26 32 49 50 56 58 59 61 61 61
39 32 41 40 33 31 26 22 29 16 22 25 26 28 30 31 25 25 25 27 25 27 27 29 24 26 20 25 26 21 21 23 19 30 27 28 35 52 54 56 58 59 61 62 64
38 37 39 35 26 25 28 19 22 18 18 23 25 29 34 33 32 28 27 30 32 26 29 30 26 25 25 24 27 23 23 24 22 21 31 26 29 53 56 57 58 59 60 61 62
40 31 32 34 31 23 24 22 21 25 23 26 30 30 30 32 34 30 28 28 33 32 43 35 26 29 21 23 24 28 28 25 23 20 23 26 35 51 54 56 57 58 59 59 60
39 30 32 22 23 25 25 23 21 20 24 25 32 29 29 30 30 29 29 30 32 41 34 33 31 29 28 27 26 27 26 24 25 23 24 26 29 46 53 55 57 57 58 58 60
41 36 36 32 30 25 28 26 20 20 26 22 28 28 30 33 34 31 30 32 31 33 35 33 33 33 31 30 27 31 34 30 27 28 26 31 32 46 53 56 56 57 56 57 58
48 47 43 34 26 23 25 25 22 24 28 32 32 30 28 31 32 32 30 30 31 33 34 35 34 33 29 30 30 27 30 31 35 36 35 28 44 49 52 54 55 56 57 57 58

GFSSW_sfc_dewp_099.txt.gz
Dewpoint
55 55 55 55 55 55 55 55 55 54 55 55 55 55 56 57 57 51 36 35 40 61 63 44 50 55 58 60 61 61 61 56 54 50 52 55 54 55 58 55 55 55 54 57 59
55 56 55 55 55 55 55 55 55 55 55 55 55 55 56 57 48 38 53 57 55 65 47 40 46 57 57 58 58 60 60 56 56 50 54 56 55 56 55 55 55 52 56 59 59
55 55 55 54 55 54 54 55 54 55 55 55 55 55 55 55 44 29 58 61 62 61 43 39 45 55 57 56 55 58 58 57 55 54 56 55 56 56 55 54 52 54 57 58 58
56 55 54 54 54 54 54 54 54 54 54 54 55 55 56 49 25 40 61 63 64 45 44 36 38 53 56 55 54 53 57 57 55 55 55 55 56 54 53 53 54 56 57 58 57
55 54 54 54 54 53 53 53 53 53 54 54 54 55 51 37 30 47 64 60 41 44 40 34 32 48 54 56 54 54 56 56 56 54 55 55 53 52 55 54 56 56 57 57 56
55 55 54 53 53 53 53 53 53 53 53 53 54 55 46 30 31 41 40 34 26 40 35 32 30 38 53 56 54 57 56 56 57 57 58 54 53 52 54 54 55 56 56 56 55
54 54 54 54 53 53 53 53 53 52 53 54 54 50 38 27 30 44 36 30 28 34 33 30 30 35 52 53 53 57 55 56 58 57 57 55 52 53 54 54 55 55 55 55 55
55 54 55 54 54 53 53 53 52 53 54 55 55 47 33 24 32 41 38 37 32 31 32 31 35 41 51 51 56 57 56 55 58 56 58 56 54 54 54 54 53 53 53 53 54
55 55 54 54 53 53 53 53 54 54 55 55 52 44 25 35 28 36 34 36 33 30 32 33 44 48 48 47 56 56 53 54 56 57 59 58 56 58 55 53 52 52 52 53 54
56 56 54 54 53 53 53 53 55 55 54 49 44 36 30 26 30 27 25 27 25 25 26 27 44 45 44 44 50 50 53 53 55 57 57 57 56 60 59 59 51 52 52 53 52
56 56 55 54 54 53 50 51 48 48 45 33 28 26 26 32 35 29 27 22 21 23 23 23 35 41 41 42 51 53 53 53 55 57 56 56 55 60 61 59 59 52 52 52 52
56 56 54 53 53 53 49 36 33 33 30 28 26 26 28 30 32 28 28 24 21 17 21 21 27 36 42 39 37 45 51 53 57 56 53 57 56 60 61 58 59 58 52 52 53
56 55 53 54 53 49 41 34 34 35 32 25 25 23 24 28 27 29 25 24 20 14 16 19 19 28 38 40 35 37 48 49 52 56 55 56 55 58 61 60 61 61 55 52 52
56 54 53 53 47 37 34 36 36 37 30 26 25 27 28 27 23 30 29 23 19 14 16 19 19 23 40 40 35 34 50 54 55 50 53 55 48 54 57 58 60 59 55 52 53
55 53 52 52 47 35 35 35 36 37 23 24 24 30 29 27 26 27 29 25 20 14 15 17 16 23 34 35 37 36 37 55 55 49 49 51 46 51 55 55 57 59 56 54 55
54 53 52 49 46 37 36 35 37 27 21 22 23 24 25 24 24 25 25 26 24 19 15 16 21 23 29 31 36 37 33 34 45 46 46 44 41 47 49 54 57 58 59 57 57
52 51 50 47 37 35 35 36 32 20 22 20 20 20 21 21 24 25 23 24 24 21 19 19 25 26 28 26 34 38 32 31 32 46 36 42 40 43 49 54 57 59 60 57 59
51 50 49 44 39 37 37 35 26 17 20 20 20 20 18 21 21 24 25 24 25 22 18 14 17 25 25 28 30 35 32 31 32 31 34 43 38 42 46 49 50 55 57 58 56
51 47 42 39 40 41 37 31 22 21 20 19 21 19 19 18 22 22 25 22 23 26 23 16 17 23 25 26 27 29 34 33 32 32 37 37 46 49 46 47 52 55 54 57 57
46 36 35 39 40 39 35 25 23 21 21 21 21 29 22 19 17 21 23 23 22 24 25 26 21 21 21 22 23 22 29 30 30 32 33 35 37 37 50 52 53 53 55 58 59
45 32 38 38 39 34 28 25 21 20 19 21 21 21 26 27 19 21 27 24 29 31 27 27 24 22 22 22 20 20 21 28 28 26 26 32 36 46 51 53 55 55 56 56 58
39 28 38 38 33 28 24 20 24 12 17 17 22 23 27 37 23 21 29 32 28 28 28 27 25 22 20 19 19 19 19 22 23 31 26 26 45 47 52 54 57 60 62 63 64
39 34 36 34 29 22 25 15 16 16 15 16 22 24 29 28 30 28 34 31 29 27 32 29 24 23 24 18 19 18 20 18 17 19 27 22 38 49 55 57 58 59 61 63 64
39 28 30 30 30 23 23 20 18 21 17 17 24 26 26 29 30 32 26 28 31 29 49 39 26 25 25 26 22 21 20 18 16 17 18 25 44 50 53 56 58 60 61 61 62
38 30 28 24 21 22 23 21 17 17 20 20 26 25 25 29 28 29 28 28 31 41 35 30 30 29 26 30 25 19 16 19 21 24 22 22 32 47 53 55 57 59 59 60 61
40 33 27 29 26 23 26 25 17 14 20 20 23 25 26 30 34 37 29 34 33 33 35 35 35 35 28 30 24 21 22 22 20 19 20 24 37 48 53 57 57 58 59 60 60
44 42 39 32 24 21 24 21 19 17 22 25 27 27 25 30 30 31 30 29 33 35 36 37 40 37 33 26 28 26 28 25 24 23 23 27 43 45 51 54 57 57 58 59 59

GFSSW_sfc_dewp_105.txt.gz
Dewpoint
55 55 55 55 55 55 55 55 55 55 56 57 57 57 57 58 57 49 44 43 48 62 64 45 40 45 48 51 61 66 56 55 56 47 46 55 56 57 55 52 57 57 57 59 60
55 55 56 55 55 55 56 56 55 56 56 56 56 57 57 58 51 42 50 64 64 65 31 45 40 49 51 57 62 62 58 56 58 58 53 50 55 56 55 53 55 57 57 58 60
55 56 55 55 56 55 55 55 55 55 56 56 56 56 57 56 46 40 67 64 64 59 28 39 41 44 52 59 59 62 58 60 56 57 61 52 55 55 54 54 55 55 55 57 53
56 56 56 55 55 55 55 55 55 55 55 56 56 56 57 52 37 44 64 63 63 36 20 31 36 37 54 56 58 57 60 60 60 64 61 55 55 54 56 55 56 56 56 55 52
56 56 56 56 55 55 55 55 55 55 55 55 56 56 53 45 39 51 68 64 45 25 20 34 39 37 51 57 57 58 58 61 62 60 61 55 55 56 55 55 55 54 54 53 52
56 56 56 56 56 56 56 56 55 55 55 55 55 57 51 32 42 49 54 53 31 18 31 35 39 35 40 53 56 58 59 62 61 64 64 55 56 54 56 56 55 55 53 52 52
57 57 57 56 56 56 56 56 55 55 55 55 56 52 42 36 33 45 42 39 32 19 30 34 39 34 32 38 56 59 58 59 62 63 61 57 54 54 55 55 55 54 53 52 52
57 57 57 56 56 55 55 55 54 55 55 56 56 51 41 35 29 31 34 27 20 20 26 34 34 31 28 43 52 55 56 55 60 62 62 58 53 56 56 54 54 53 53 52 53
57 57 57 56 56 56 55 55 55 56 57 56 54 48 39 41 21 24 27 32 18 18 23 30 32 28 28 31 43 57 52 54 57 63 62 57 55 57 56 53 52 52 52 52 52
57 57 57 56 56 55 54 54 54 55 56 51 48 43 42 30 25 20 22 33 30 27 25 27 31 29 30 32 43 50 52 53 54 58 58 58 57 59 60 53 51 52 52 52 51
57 56 56 56 55 54 51 46 49 49 47 43 39 35 26 28 30 31 31 30 31 28 26 29 27 27 30 35 41 53 54 51 56 57 55 57 57 59 61 60 59 52 53 51 51
56 56 56 55 54 54 52 40 39 32 31 34 41 33 18 23 27 29 27 24 28 24 23 23 22 22 24 43 49 51 51 52 55 56 53 54 57 59 60 60 60 59 59 55 51
56 56 55 54 53 51 44 37 35 34 32 33 33 21 17 21 20 28 25 22 19 18 17 18 20 21 19 47 46 51 51 52 51 54 54 54 55 56 59 61 61 60 59 60 58
55 55 54 53 50 44 40 40 40 35 33 31 22 21 21 21 20 22 26 25 21 17 17 14 16 17 18 44 47 49 52 52 52 50 47 55 48 55 57 57 58 59 58 60 60
55 55 53 51 47 39 35 34 33 35 28 22 23 26 26 21 24 21 27 25 23 21 18 13 11 11 15 22 49 51 53 51 49 50 51 51 51 53 56 54 55 56 57 59 60
54 54 53 49 49 45 39 35 35 32 29 20 22 23 23 22 22 26 27 26 25 22 23 17 14 13 16 25 47 52 51 51 52 51 45 49 50 51 52 51 53 55 58 59 61
52 52 51 47 42 40 36 37 33 32 31 22 18 21 21 22 21 25 25 26 24 22 21 22 13 12 15 35 50 51 50 46 43 42 41 49 48 50 53 56 54 55 57 58 62
51 51 50 48 44 40 37 36 35 36 28 16 15 17 18 24 25 22 24 21 24 23 21 21 15 13 22 21 41 49 43 41 38 42 44 50 48 50 53 55 57 57 57 60 61
51 48 48 44 47 45 38 35 36 31 16 14 15 22 28 27 27 26 24 21 20 21 20 22 22 22 21 23 24 31 36 38 42 45 44 49 51 54 53 55 55 56 58 59 60
49 46 42 41 38 39 38 34 33 21 15 12 15 19 28 28 31 28 29 29 26 25 22 21 24 26 26 20 24 23 32 29 39 39 39 46 48 50 48 52 54 54 54 55 57
49 42 41 40 36 39 32 33 32 15 14 18 14 18 26 32 31 35 34 30 30 27 28 31 29 25 29 23 22 22 28 28 38 36 36 41 45 52 51 51 52 53 54 55 57
47 39 38 33 35 35 30 31 34 16 16 16 15 16 20 31 30 37 36 37 34 29 31 33 28 27 27 24 24 22 20 22 24 27 35 33 48 56 55 54 52 55 57 58 57
46 41 41 37 30 26 35 31 19 13 18 14 14 15 24 34 35 38 35 35 36 31 33 32 32 28 25 26 26 20 20 20 19 18 22 29 45 52 54 53 53 59 58 59 58
47 41 42 41 36 27 32 31 26 20 19 20 25 21 22 33 37 41 40 38 35 31 53 41 28 29 26 27 28 30 22 19 25 16 19 21 47 51 49 47 60 63 64 65 60
48 40 40 37 30 26 29 27 21 20 21 21 30 23 28 34 41 41 40 39 40 44 36 31 28 29 30 33 28 28 28 22 17 22 23 43 47 53 57 58 61 62 63 64 65
45 44 46 43 39 30 29 29 20 20 24 20 24 22 28 34 38 40 41 45 42 41 36 33 32 40 36 41 39 36 30 31 26 17 42 52 52 57 58 58 59 59 60 62 63
52 52 50 45 40 30 26 32 23 25 23 25 24 28 30 35 38 39 41 41 40 40 36 37 40 39 36 40 39 35 38 36 42 43 36 43 51 53 53 53 56 59 59 61 62

GFSSW_sfc_dewp_108.txt.gz
Dewpoint
55 55 56 56 56 55 55 56 56 56 56 57 57 57 57 58 58 52 42 40 48 61 67 41 43 39 43 46 64 65 56 55 55 45 49 56 55 55 58 58 56 57 57 60 64
55 55 55 55 55 56 55 55 56 56 56 57 56 57 57 58 53 46 50 62 66 68 38 40 41 42 48 51 62 62 57 55 58 58 56 57 58 53 56 56 56 54 60 62 63
56 56 57 56 56 55 56 56 56 56 56 56 56 57 57 57 48 40 63 63 68 65 28 32 38 40 44 57 60 61 58 59 57 58 58 59 57 56 55 55 54 55 59 61 61
57 57 57 56 56 56 56 56 56 56 55 56 56 57 57 54 35 43 65 65 67 39 23 27 32 36 37 54 61 59 61 60 59 59 61 60 59 55 58 56 55 55 58 59 59
57 57 57 56 57 56 56 56 56 55 55 55 56 56 52 42 41 48 66 65 51 30 17 21 35 39 37 55 58 59 59 60 62 62 60 61 60 55 56 57 55 57 57 58 59
57 57 57 57 56 56 56 57 56 55 55 55 55 57 50 30 36 56 53 51 34 21 19 24 37 40 36 49 56 59 60 61 63 61 62 61 59 55 56 57 54 55 55 54 53
57 57 57 57 56 56 56 56 55 55 55 56 55 53 46 29 43 54 52 49 39 17 27 31 32 37 35 30 54 59 58 61 61 63 62 62 57 55 55 54 54 54 52 52 55
57 57 57 57 56 56 56 55 55 55 55 56 56 51 37 39 39 32 44 32 35 21 19 30 34 33 31 29 36 56 58 55 59 61 59 63 54 55 55 54 53 52 52 53 55
57 57 56 56 56 56 55 55 55 56 57 56 51 48 41 48 30 28 32 29 21 19 19 21 28 31 28 29 37 57 51 53 59 60 62 60 56 56 55 55 53 53 53 53 55
56 56 56 56 56 55 54 54 54 54 55 53 50 42 39 34 27 22 22 24 21 20 21 21 28 28 28 29 32 47 51 53 53 57 59 56 57 59 58 54 53 53 52 53 55
56 56 56 56 55 54 51 45 40 41 49 41 38 37 35 29 30 28 23 30 31 27 24 26 27 27 28 28 32 53 53 53 55 57 55 55 55 59 60 56 56 53 52 53 55
55 55 55 55 54 53 50 39 35 38 32 41 42 41 39 33 24 29 29 28 30 26 26 25 25 27 28 29 37 53 53 53 53 56 54 54 54 56 60 60 60 58 52 52 54
55 55 55 54 53 49 45 41 38 35 32 32 34 37 37 20 20 20 27 22 23 25 21 21 22 25 24 27 50 51 51 52 51 53 55 53 52 53 59 61 61 60 60 60 53
55 55 54 53 46 44 39 41 38 36 30 32 28 20 19 19 20 20 27 23 24 17 17 16 17 19 19 28 48 49 52 52 52 50 46 53 47 55 57 58 59 59 58 59 59
54 54 53 52 45 39 34 39 39 34 26 30 24 27 24 20 22 22 27 26 23 23 20 18 14 13 15 17 49 52 52 50 51 50 50 50 48 53 57 55 56 57 58 59 60
54 53 52 48 47 47 46 42 35 30 29 23 23 22 24 23 23 26 25 28 26 26 24 23 24 13 12 41 52 51 51 50 50 49 43 48 48 50 53 55 55 56 58 59 59
53 51 51 48 32 40 40 36 31 30 34 22 20 23 22 21 24 25 26 25 24 21 21 23 22 29 52 50 51 50 47 44 43 43 41 50 48 49 54 55 54 54 59 59 61
51 50 50 49 47 44 38 34 31 35 34 25 13 18 21 26 27 25 25 24 25 24 22 20 19 17 37 49 49 49 42 40 37 40 44 50 46 50 54 53 53 54 57 60 61
50 47 48 47 48 44 35 33 33 34 17 10 11 19 24 25 29 26 26 22 22 23 20 20 22 23 23 43 49 47 40 41 42 43 44 48 50 53 52 55 54 55 55 59 60
47 46 41 43 45 38 34 33 32 33 13 11 13 19 26 26 30 31 33 34 33 30 26 22 19 21 26 25 40 41 40 35 37 38 39 44 45 48 47 51 55 57 55 58 60
48 37 39 41 39 36 31 30 31 31 16 13 13 13 22 29 32 34 35 36 35 33 32 30 23 24 28 26 21 22 28 29 36 39 39 42 45 50 47 49 54 56 57 57 58
47 39 37 37 32 33 29 30 36 29 14 13 12 13 21 32 36 36 35 37 37 34 29 34 28 26 26 28 25 22 21 25 23 23 36 38 44 51 51 50 54 55 56 57 57
44 44 41 33 28 26 28 28 29 29 18 15 16 17 32 34 33 39 38 39 39 37 30 29 27 26 26 29 30 27 26 33 21 22 28 32 42 50 55 53 52 53 58 59 59
46 37 41 38 34 28 25 25 28 20 18 17 17 21 29 32 41 39 39 39 39 38 55 40 27 30 25 27 30 29 30 29 21 17 17 25 41 50 48 58 60 60 61 61 60
46 38 40 39 37 38 30 27 26 19 18 20 22 28 26 35 37 38 41 38 38 45 39 31 26 27 29 40 39 37 38 38 33 26 18 25 44 52 53 60 61 63 64 63 60
41 42 47 44 43 38 34 26 20 18 18 21 22 34 34 35 33 31 40 41 39 34 36 35 31 38 38 38 39 38 40 43 44 45 51 52 52 57 60 61 61 62 63 63 61
49 49 48 44 43 41 28 23 22 19 23 20 24 25 31 35 37 34 38 37 39 37 33 40 38 37 35 39 38 39 40 43 45 46 48 47 50 56 56 58 59 61 62 63 64

GFSSW_sfc_dewp_111.txt.gz
Dewpoint
55 55 55 55 55 55 55 55 55 55 55 56 56 56 57 57 57 53 36 37 48 61 66 39 49 40 42 45 64 64 56 54 55 48 53 56 56 59 59 57 58 58 59 61 65
56 55 56 56 56 56 55 55 55 55 55 56 55 57 57 57 53 47 47 58 61 63 40 36 39 41 46 48 63 61 56 55 59 57 57 58 55 57 57 55 56 58 60 64 65
57 57 56 55 55 55 55 55 55 55 55 55 56 56 57 57 46 33 61 62 65 68 31 30 34 37 44 55 61 60 57 58 56 58 58 57 57 57 55 55 56 58 61 63 63
57 57 57 57 56 56 55 55 55 55 55 55 56 56 57 54 30 41 66 64 67 51 20 25 31 35 38 46 61 59 60 60 57 58 58 58 61 55 56 56 57 59 61 62 62
57 57 57 57 56 55 55 55 56 56 55 55 56 56 51 35 35 42 69 66 53 26 17 19 32 37 38 44 60 59 60 61 61 61 60 61 59 58 56 55 59 60 61 61 61
57 57 57 57 57 57 56 56 56 55 55 56 56 57 47 16 25 54 55 50 38 25 22 23 32 39 40 36 57 59 59 61 61 61 60 60 59 59 57 55 58 59 59 60 60
56 57 56 57 57 56 56 55 55 55 55 56 56 54 44 18 46 52 48 41 37 21 19 21 30 34 37 34 48 60 59 61 61 62 61 62 57 56 57 57 55 57 58 59 60
56 56 56 56 56 56 55 55 55 55 56 57 56 51 38 34 40 35 50 47 38 20 19 29 34 34 34 32 31 58 58 54 59 61 61 61 55 58 58 54 54 55 55 57 57
56 56 55 56 56 55 55 54 55 56 56 56 50 46 35 48 41 40 38 42 26 27 24 19 26 27 31 29 33 52 50 53 57 61 60 60 57 59 57 55 54 55 52 55 59
55 56 56 56 55 55 53 53 55 54 55 55 51 41 35 32 33 23 33 32 26 18 21 19 25 28 28 26 27 43 51 52 53 58 59 57 57 59 58 56 53 54 53 56 59
55 55 55 55 55 53 50 44 34 36 50 36 34 35 34 36 29 24 20 21 29 25 24 27 24 24 27 28 33 53 53 52 54 58 56 55 55 58 60 58 53 53 53 54 57
55 55 55 54 54 52 49 31 32 37 32 40 42 41 41 37 35 28 30 28 29 27 26 24 25 27 29 29 36 52 52 52 54 56 55 55 54 56 58 60 60 54 53 54 54
56 55 54 54 53 48 41 39 38 41 34 32 37 37 36 37 33 22 28 26 24 26 23 22 23 25 26 32 51 52 50 51 50 53 55 53 53 55 58 61 61 60 56 55 54
56 55 53 52 42 44 34 43 40 37 30 30 32 29 25 19 20 21 26 22 24 19 22 19 19 20 21 23 50 48 52 52 52 50 46 53 46 53 56 58 59 59 59 55 54
56 55 53 52 42 40 31 42 41 34 23 31 25 25 21 20 23 22 26 25 21 23 21 21 21 21 16 18 49 49 52 52 51 49 49 51 47 51 56 54 56 59 59 58 56
55 54 52 48 46 43 44 41 35 30 29 29 23 23 25 22 22 25 26 26 26 24 25 23 25 22 22 44 47 52 50 50 50 48 43 48 48 48 53 53 54 58 59 60 57
54 52 50 48 26 40 41 36 31 29 35 17 16 21 22 22 23 24 24 24 23 20 22 23 25 51 51 50 51 50 45 39 38 40 41 49 47 47 52 57 56 58 60 59 61
52 50 49 49 46 43 37 34 32 33 34 30 13 24 21 28 26 25 25 24 27 25 22 21 18 46 50 49 47 48 42 37 33 38 42 50 46 48 53 56 59 58 59 60 61
51 46 46 47 49 42 35 32 32 35 30 11 12 22 24 25 29 27 28 30 26 24 21 20 21 23 46 49 48 47 41 41 42 41 41 46 50 52 52 51 54 56 55 59 61
47 45 42 47 46 37 33 32 32 34 24 12 11 18 23 27 30 30 32 35 34 34 28 27 21 21 24 46 48 43 43 38 40 38 35 43 46 46 50 52 55 54 55 57 60
47 40 34 45 39 35 30 30 31 31 31 13 12 12 19 28 33 34 35 35 36 34 31 30 21 21 27 25 36 28 34 32 37 39 39 39 42 49 45 48 54 54 54 57 59
44 32 38 40 33 33 31 30 33 30 18 14 13 13 25 34 35 35 34 36 38 37 30 32 28 27 24 28 28 24 30 30 28 24 39 39 40 53 50 50 55 57 56 57 58
39 43 44 36 31 31 28 27 28 27 23 16 18 18 33 34 31 37 36 37 38 36 32 30 26 25 27 31 32 28 32 31 22 24 31 32 35 53 52 52 55 56 58 59 60
43 35 39 36 34 29 27 27 26 28 26 16 18 21 32 34 39 35 37 38 39 38 54 41 28 28 28 28 32 35 39 38 18 17 19 27 24 48 52 56 54 56 57 59 61
43 35 42 39 39 42 36 35 34 29 19 21 29 30 29 35 37 33 39 36 37 44 39 34 28 28 29 40 39 41 43 44 40 41 18 20 23 45 55 58 59 59 60 59 61
34 43 48 45 44 41 38 33 32 30 16 22 30 33 33 33 28 26 36 38 35 36 35 36 35 38 37 39 39 39 41 44 45 47 45 50 50 58 60 61 61 61 61 59 60
47 47 48 44 44 42 39 35 31 19 24 19 27 32 32 32 35 32 37 37 39 39 34 40 36 36 34 38 35 34 40 43 44 49 50 46 51 53 54 57 58 61 62 62 62

GFSSW_sfc_dewp_114.txt.gz
Dewpoint
55 55 55 55 55 55 55 55 55 55 55 55 56 56 56 57 57 52 32 36 45 64 63 44 49 41 42 46 65 64 55 52 55 45 55 57 57 59 60 57 59 59 61 63 67
57 56 56 55 55 55 55 54 54 55 55 55 55 55 56 57 53 46 45 54 59 64 32 40 36 41 46 48 63 61 56 55 59 57 57 59 57 58 57 57 58 60 64 66 67
57 57 56 55 55 55 55 55 54 55 55 55 56 56 57 57 45 28 61 59 64 63 36 34 36 41 45 53 58 61 57 58 57 58 59 58 57 58 56 54 57 59 63 65 65
57 57 57 56 55 55 55 55 55 55 55 55 56 56 58 52 26 39 67 64 65 57 20 23 32 37 38 41 60 57 60 59 61 61 57 58 61 56 56 56 58 61 63 64 64
57 57 57 57 57 57 57 56 55 55 55 55 56 57 50 27 24 54 64 64 55 26 19 21 35 37 38 41 60 58 59 60 63 61 59 61 59 59 56 57 60 62 63 63 63
56 57 56 57 57 57 56 56 56 56 55 56 56 57 45 10 21 56 58 45 35 23 21 25 32 37 40 38 54 59 60 61 62 61 61 60 58 59 57 58 59 61 62 62 63
56 56 56 56 56 56 56 55 55 55 55 56 56 54 40 11 46 49 47 42 34 25 21 21 32 36 38 34 42 60 59 59 61 61 60 62 57 58 59 59 59 60 61 61 62
55 55 55 55 56 56 55 55 55 55 56 56 56 50 37 33 40 38 48 48 39 20 20 25 33 34 35 32 41 58 57 53 59 62 61 59 54 59 61 58 58 59 59 60 61
56 55 55 55 55 55 54 53 55 55 56 56 49 45 30 47 40 41 44 39 32 25 25 19 28 27 30 29 31 50 49 54 55 60 60 59 56 60 60 56 57 58 58 59 60
57 56 55 55 55 54 52 53 56 56 55 56 51 38 32 31 34 27 35 28 25 19 21 19 28 27 28 26 27 45 51 52 53 57 57 54 54 60 60 58 56 56 57 58 58
57 56 55 55 54 53 49 45 33 35 48 37 35 34 34 36 32 23 31 30 28 25 24 27 23 24 28 27 36 52 52 52 54 57 55 54 54 58 58 60 57 54 54 56 58
57 56 55 54 53 53 47 32 32 35 33 38 41 40 41 39 34 31 26 28 29 28 25 24 24 25 28 29 35 53 52 52 54 56 54 55 54 57 58 59 60 56 54 56 59
56 56 55 53 52 47 40 36 39 42 34 33 37 38 35 38 32 30 28 27 26 27 24 23 24 27 27 43 48 51 49 51 50 54 55 54 52 55 58 60 61 60 56 56 58
56 56 55 52 38 41 34 41 40 39 29 27 32 31 27 24 20 24 27 22 21 21 22 22 20 21 22 23 46 46 51 51 53 50 46 54 45 53 55 57 59 60 57 54 56
55 55 54 51 42 34 33 40 41 33 20 30 26 25 20 21 23 23 26 24 21 22 21 19 22 21 18 18 45 42 53 52 51 48 49 51 47 50 55 54 56 59 59 55 55
55 54 52 47 44 42 42 40 35 30 26 31 23 23 24 23 21 25 24 26 26 23 25 23 25 23 24 44 45 52 50 49 48 47 42 48 47 47 52 52 54 57 59 58 55
53 52 51 48 25 40 40 36 30 27 32 23 13 20 23 23 23 24 23 24 23 24 19 23 25 49 51 49 50 49 43 38 37 39 39 48 46 47 54 57 56 58 59 59 56
52 51 49 48 47 42 37 34 30 31 34 26 13 24 22 28 27 25 25 24 26 23 23 20 18 48 50 49 48 47 40 37 30 35 39 49 44 47 51 54 56 56 59 60 59
51 46 45 45 48 42 35 32 31 34 33 11 12 16 23 27 29 30 30 28 28 24 21 20 20 27 49 50 48 47 42 43 40 39 40 45 48 50 53 55 58 58 59 60 61
46 45 43 47 47 36 32 33 32 35 30 12 10 16 21 26 29 30 33 35 33 33 27 29 23 24 27 48 48 45 46 40 41 34 34 41 44 45 50 52 57 58 58 59 61
46 37 34 46 39 34 27 29 31 32 31 13 12 12 19 28 33 35 34 35 36 34 30 30 22 22 27 33 43 33 39 37 39 40 37 36 38 48 49 51 56 56 57 57 59
39 31 40 39 32 32 30 31 33 30 22 14 13 15 25 33 34 33 32 34 37 36 30 33 27 26 26 27 31 32 37 34 32 27 39 37 38 52 50 50 54 54 55 57 58
36 40 44 37 30 31 31 27 28 27 27 14 15 17 34 33 32 36 35 36 38 36 32 30 26 27 25 30 36 32 38 32 25 29 36 32 32 53 52 53 56 56 57 58 59
41 29 39 37 35 31 29 29 27 30 27 20 17 31 32 36 38 30 36 36 38 38 53 38 28 28 27 30 35 38 42 44 19 19 22 31 26 50 52 54 56 58 59 59 61
40 31 41 37 37 40 34 37 36 35 23 23 33 25 31 32 35 34 37 35 35 41 38 32 27 32 30 38 41 42 42 44 39 41 21 35 45 53 56 58 56 58 59 60 61
31 43 46 45 44 43 39 37 33 32 24 18 28 30 33 31 30 26 32 35 35 35 36 39 31 39 38 38 39 38 41 44 46 49 47 48 48 57 59 61 61 60 59 60 61
45 45 47 42 43 40 39 35 41 38 21 22 31 33 32 30 32 35 36 36 38 37 34 39 39 34 32 38 36 36 39 42 45 48 49 47 49 54 56 58 60 61 61 60 63

GFSSW_sfc_dewp_117.txt.gz
Dewpoint
56 55 55 55 55 55 55 55 55 55 55 55 55 55 56 57 57 51 28 37 44 61 62 53 45 41 45 48 63 62 57 52 50 49 53 57 56 57 59 56 57 59 57 60 65
57 56 56 55 55 55 55 55 55 55 55 56 56 56 57 56 51 41 47 52 57 66 34 38 37 43 49 50 62 60 57 54 59 57 57 56 55 57 55 55 58 61 62 64 65
57 57 57 56 56 56 55 56 55 55 55 55 56 56 57 57 41 27 62 58 62 60 29 41 40 45 47 52 58 61 57 57 59 60 61 58 56 57 54 53 57 57 62 64 65
57 57 57 57 57 57 56 56 56 55 55 56 56 57 58 53 26 32 70 65 64 56 20 30 40 44 43 46 57 55 58 57 58 58 60 58 58 55 56 54 56 58 62 63 63
56 57 57 57 57 57 57 57 56 56 55 56 57 57 50 22 14 53 64 63 52 25 18 29 43 40 41 39 53 55 59 60 59 56 56 59 57 57 55 57 59 61 62 62 63
56 56 56 56 56 56 56 56 56 55 56 56 57 57 41 9 32 56 55 41 29 25 21 24 38 39 38 36 48 59 60 61 61 61 59 58 57 58 55 58 60 61 61 62 62
56 56 56 56 56 56 56 55 54 55 56 56 56 54 36 10 47 53 45 39 32 28 26 23 33 38 38 35 42 59 59 60 61 60 59 59 55 56 57 59 60 60 61 62 62
57 56 55 55 55 55 55 53 53 55 55 56 56 51 33 33 37 39 45 46 35 25 22 22 26 33 35 33 56 56 55 53 59 60 62 57 54 58 59 58 59 59 61 61 62
58 57 56 55 55 55 53 53 55 55 56 57 52 46 28 47 38 39 43 38 32 25 23 22 26 30 30 30 40 53 47 53 56 60 60 57 55 59 61 58 55 59 60 60 61
57 57 57 56 55 54 53 54 57 57 56 55 51 39 33 30 34 33 38 31 24 22 19 20 27 29 29 28 31 45 49 53 53 57 55 57 57 58 60 58 56 58 59 60 60
57 57 56 56 55 53 49 46 38 38 48 35 34 35 33 36 34 25 35 32 26 26 22 26 28 32 28 29 36 42 48 50 54 57 55 53 54 57 59 58 57 58 59 59 59
56 55 56 55 54 52 47 34 35 36 33 35 38 39 39 39 32 27 31 28 26 29 26 26 28 26 28 29 41 44 46 51 54 56 54 54 52 57 59 58 57 57 59 57 59
55 55 55 54 53 45 39 37 39 37 34 33 36 36 35 38 29 26 26 28 28 28 26 25 25 26 27 38 41 45 39 50 49 54 54 52 51 54 59 59 60 60 58 56 57
55 55 53 52 39 39 34 39 39 39 30 28 30 31 36 32 21 28 28 25 22 25 26 25 22 22 23 22 33 33 47 49 53 51 47 53 46 52 56 58 58 58 58 56 56
55 54 52 51 41 31 34 38 39 35 19 32 27 27 22 21 23 20 25 24 22 20 23 23 20 22 21 20 29 28 50 51 52 50 49 50 49 49 54 54 56 57 56 58 56
54 53 52 47 45 38 39 39 37 31 20 26 23 23 22 23 21 24 23 27 26 23 24 23 24 23 23 45 34 52 50 50 50 49 45 45 47 46 52 52 54 55 55 56 57
53 52 51 48 27 40 39 38 32 26 31 20 15 19 23 25 23 23 23 24 24 23 23 24 23 40 49 46 49 49 45 40 40 43 38 49 48 47 51 52 53 53 55 57 57
51 51 50 48 46 42 37 36 31 29 31 23 15 24 23 28 28 25 24 22 26 24 24 23 18 44 48 43 42 45 37 25 27 34 40 49 46 45 50 52 53 54 56 59 57
50 46 46 45 49 43 37 33 32 33 32 15 13 20 23 27 29 32 32 25 29 26 25 22 22 30 49 49 46 46 42 39 40 44 43 46 47 48 51 52 55 56 57 59 58
48 46 45 47 47 38 35 34 34 35 31 12 13 17 20 25 29 31 33 34 32 33 30 28 27 26 35 49 48 46 45 42 45 34 32 39 44 44 50 52 54 55 58 58 59
45 38 40 47 40 38 28 31 32 32 33 20 13 14 19 27 32 33 33 34 34 33 31 29 27 27 28 38 37 42 41 42 43 43 32 33 33 47 50 52 55 56 58 58 60
35 33 43 43 35 35 30 32 33 30 26 15 15 14 23 32 33 31 31 34 37 35 30 31 28 27 26 28 30 40 39 38 34 35 39 39 32 53 52 51 56 57 58 59 61
37 38 45 40 30 32 33 28 29 26 27 15 15 17 34 33 29 34 33 35 38 35 34 32 29 25 25 30 35 35 41 36 29 34 36 30 28 50 53 52 55 57 59 59 60
40 33 41 40 37 33 32 30 30 29 29 26 21 33 35 34 37 32 34 34 37 35 52 39 29 30 22 30 36 40 41 44 36 27 29 29 32 41 54 56 55 58 58 59 60
40 32 41 37 37 35 34 37 33 33 29 25 29 27 30 31 33 33 35 33 34 40 39 34 31 31 31 37 39 39 40 44 39 43 27 31 44 53 56 59 59 58 59 60 61
35 45 46 46 45 43 41 40 36 36 34 19 28 26 34 32 31 29 33 37 35 36 37 39 34 37 36 37 35 38 38 43 47 48 48 47 48 56 59 61 59 58 59 60 62
43 46 47 42 43 42 40 37 35 41 35 24 28 32 32 32 35 31 34 36 38 37 37 41 40 37 31 34 35 36 38 38 44 48 49 45 51 55 57 59 60 59 59 61 61

GFSSW_sfc_dewp_120.txt.gz
Dewpoint
57 57 56 55 56 56 56 56 56 56 56 56 56 57 57 57 57 47 26 36 41 58 61 41 41 47 52 54 61 61 56 49 48 47 52 55 54 55 56 53 52 55 51 56 61
58 57 57 57 57 56 57 56 57 56 56 56 56 57 57 57 46 30 48 48 55 64 40 35 41 50 52 53 59 60 56 54 56 57 56 54 54 55 52 52 55 55 57 59 60
57 57 57 57 57 57 57 57 57 57 56 56 56 57 57 57 40 33 64 57 60 59 30 35 45 52 52 53 57 60 58 57 58 59 59 57 54 55 52 51 53 54 57 59 59
57 57 57 57 57 57 57 57 57 56 57 56 57 57 58 49 26 35 67 64 63 40 30 41 48 50 51 50 55 55 56 56 58 59 59 56 56 55 53 54 53 53 57 58 59
56 56 57 57 56 57 57 57 57 57 55 56 57 57 51 30 23 49 66 62 46 29 23 42 48 50 48 45 49 53 55 58 57 56 57 56 56 55 55 54 53 55 58 58 58
57 57 56 56 56 56 56 56 56 55 56 56 57 58 42 22 41 47 44 37 29 24 19 38 47 48 44 37 48 55 58 59 59 59 57 54 56 56 55 55 55 57 57 57 57
57 58 57 56 56 56 55 55 54 54 56 56 57 51 34 31 46 41 35 32 28 26 19 23 40 48 43 36 52 57 57 59 60 59 58 59 56 57 55 56 56 56 56 57 58
57 57 57 57 56 55 55 53 54 54 55 56 57 50 28 28 33 41 39 41 34 28 20 22 32 44 39 34 52 53 52 52 58 59 60 59 53 59 57 57 56 54 55 57 59
57 57 57 57 57 56 54 54 55 55 56 57 53 45 25 46 34 32 36 34 27 25 21 18 32 39 38 34 39 46 41 48 55 59 59 57 55 59 60 57 57 57 55 56 59
56 55 56 56 56 55 53 54 57 57 56 53 49 40 31 30 33 34 38 32 21 17 17 18 28 34 38 34 28 35 40 45 48 57 57 54 55 58 59 59 57 56 54 54 57
55 55 55 55 54 53 50 47 44 42 44 34 32 32 28 33 30 27 33 28 23 14 11 20 21 25 31 34 33 36 38 40 53 57 55 54 55 58 59 59 58 56 56 53 55
55 55 55 54 53 53 48 35 35 34 32 35 35 35 35 34 27 26 31 28 26 18 20 21 17 25 31 31 34 35 36 41 53 56 55 53 54 54 59 58 58 57 59 55 53
55 55 54 53 53 48 37 36 37 35 33 32 34 32 31 33 21 25 30 28 25 25 18 14 21 28 29 30 31 34 33 35 44 54 54 52 51 53 57 59 59 58 59 57 54
55 55 54 52 44 34 35 37 34 36 28 26 27 30 34 31 22 24 27 27 23 22 23 20 24 25 27 26 28 27 34 35 49 47 43 51 38 52 55 59 58 58 57 57 54
54 54 53 52 45 31 35 31 38 37 20 27 25 30 27 23 22 22 26 25 23 22 23 21 22 22 21 20 22 23 34 36 46 45 45 47 44 41 52 56 57 58 57 56 54
53 53 52 49 45 35 31 34 38 29 20 23 22 22 21 22 22 22 23 25 26 23 23 22 21 21 20 26 23 34 38 44 47 46 37 36 43 39 49 52 54 56 57 57 56
53 52 51 47 34 34 33 37 30 23 25 19 17 19 22 23 23 23 24 24 23 21 21 20 20 19 24 27 30 37 33 31 32 33 30 44 41 42 45 50 52 54 56 57 57
51 51 50 45 42 39 30 33 30 23 21 16 18 21 21 25 26 23 24 22 25 23 21 18 18 22 30 29 30 34 27 23 25 21 26 46 39 40 48 48 50 55 56 57 56
51 45 42 44 44 41 33 30 28 25 21 15 19 21 23 25 26 26 25 23 26 26 23 21 19 27 36 36 37 33 37 29 26 26 28 30 41 44 46 47 49 50 52 52 54
48 41 40 43 43 36 32 31 32 28 23 15 16 18 18 21 23 22 26 29 29 31 31 27 24 24 32 42 42 42 41 32 29 29 27 26 35 38 43 47 50 52 53 55 56
44 34 42 44 36 33 28 30 33 29 26 15 12 12 12 15 20 23 25 31 32 31 32 28 26 26 30 35 29 39 39 38 32 32 28 29 31 41 45 50 50 52 54 56 59
39 26 42 41 28 28 25 31 35 26 27 18 15 13 15 18 21 22 24 30 33 28 25 28 23 24 23 28 29 27 33 32 30 32 33 31 41 48 50 51 51 52 57 57 61
43 34 42 40 25 27 29 28 30 28 23 17 14 15 22 21 22 21 22 32 34 28 27 28 22 23 22 24 31 29 33 36 33 34 42 30 33 46 53 51 53 55 58 59 60
43 30 38 36 34 29 25 27 28 28 25 23 16 18 24 26 27 24 23 29 34 29 49 39 18 20 17 25 36 36 37 39 36 29 27 28 32 34 52 55 55 56 58 60 62
39 30 42 29 29 30 27 23 27 30 30 29 28 21 22 25 24 25 24 26 31 41 37 33 28 23 21 22 31 34 35 37 36 36 34 28 34 40 53 57 59 58 59 59 60
40 41 44 44 43 32 32 31 27 29 33 26 27 24 24 26 24 23 26 31 26 34 35 34 32 31 28 25 30 31 33 34 38 40 40 41 40 54 56 59 60 57 59 59 59
43 44 45 41 41 37 29 31 29 30 35 34 26 26 23 25 26 29 28 28 30 31 32 35 33 35 29 27 29 27 29 32 35 38 39 38 46 52 55 58 60 59 59 60 61

GFSSW_sfc_dewp_123.txt.gz
Dewpoint
58 58 58 58 58 57 57 57 57 57 57 57 57 57 57 58 58 50 32 36 41 55 59 39 37 47 53 54 56 58 56 54 49 49 51 52 52 54 51 50 50 50 50 54 56
58 58 57 57 58 58 58 57 58 58 57 57 57 57 58 58 49 32 47 55 52 60 41 34 37 48 50 50 58 56 58 53 56 54 53 54 52 52 50 49 50 51 55 56 56
57 57 57 57 57 58 58 58 58 58 57 57 57 58 58 57 44 37 60 57 60 61 40 33 35 48 49 51 55 57 57 55 54 56 59 57 53 53 50 50 49 51 54 55 56
57 57 57 57 57 57 57 58 58 57 57 57 57 58 59 51 31 45 65 63 63 45 28 33 39 48 48 49 53 54 55 55 55 57 55 53 58 52 51 56 51 52 54 55 55
57 58 58 57 57 57 57 57 57 57 57 57 57 58 52 39 29 53 68 60 40 33 22 35 43 46 46 46 48 54 55 56 57 55 53 53 54 58 53 53 50 53 54 54 55
57 57 58 58 57 57 56 56 56 55 56 57 57 58 49 28 41 46 38 35 25 22 17 35 43 47 45 41 46 54 53 56 56 54 56 51 54 58 53 53 51 53 53 53 54
57 57 57 58 57 57 56 56 55 54 55 57 58 53 37 37 41 37 30 23 20 19 17 28 42 46 43 38 50 52 52 57 58 58 58 54 54 55 55 53 53 51 52 52 53
56 57 57 57 57 57 56 55 55 56 55 57 58 52 31 37 40 37 35 32 27 23 22 19 38 43 41 38 47 47 48 50 56 57 58 58 54 59 57 54 53 52 51 52 54
56 56 56 56 56 55 55 54 56 56 57 57 55 48 26 37 28 32 35 32 27 21 19 16 32 37 40 33 36 42 40 45 53 57 57 57 57 61 63 56 54 55 50 51 55
55 56 55 55 55 54 54 54 57 56 56 52 47 40 26 29 29 30 30 31 20 17 13 16 30 35 34 32 28 31 34 37 45 56 57 54 55 59 60 59 61 54 53 50 53
56 55 55 55 54 54 50 49 48 47 44 34 30 30 27 29 29 28 30 27 23 14 11 13 16 23 24 31 29 33 36 35 47 55 54 53 53 57 57 57 57 58 55 49 52
55 55 55 55 54 53 49 38 35 34 30 27 26 26 25 26 24 25 27 23 22 12 12 14 13 17 22 29 30 30 31 35 47 53 53 50 51 53 58 56 54 61 56 51 51
55 55 55 54 53 49 36 36 35 35 33 26 28 27 26 26 21 23 24 26 23 21 17 15 14 21 27 27 25 28 29 32 36 51 51 50 48 51 54 59 56 58 59 53 51
55 54 54 53 47 35 33 37 33 36 31 25 25 27 27 29 22 21 26 25 23 21 19 15 20 24 25 23 23 23 27 30 33 43 39 50 37 49 52 54 57 55 58 55 53
55 54 53 52 48 33 35 31 34 37 26 24 24 28 27 25 23 23 23 23 23 17 22 19 21 20 20 21 21 22 26 28 32 37 39 40 42 38 48 53 55 56 55 58 55
54 53 53 50 48 37 32 30 36 28 21 23 21 22 21 21 21 23 21 24 24 21 20 21 21 19 18 18 19 20 25 30 35 37 34 33 35 35 45 51 53 55 57 57 54
52 52 52 49 41 30 29 32 27 22 25 21 18 19 20 21 21 22 23 22 22 21 21 18 19 17 18 19 25 21 25 26 28 28 27 35 34 34 42 50 49 53 56 57 58
51 50 51 46 43 39 33 31 28 25 22 17 15 17 19 21 22 21 23 22 21 20 20 18 17 17 19 19 25 24 23 23 26 22 36 38 33 39 50 46 45 50 54 57 57
51 47 44 42 42 36 30 26 26 26 20 15 15 18 19 20 23 23 23 22 24 23 25 21 18 21 25 24 24 28 26 24 23 22 20 34 38 38 45 41 45 48 52 54 56
50 43 39 38 37 32 26 25 25 27 20 15 17 19 21 20 20 19 24 24 24 27 27 26 24 22 22 26 31 29 44 31 24 26 26 25 31 37 43 38 44 48 52 55 57
49 37 40 35 31 27 22 22 25 30 24 18 15 16 16 16 19 21 20 27 27 29 29 26 25 25 27 28 28 30 28 36 34 35 31 27 36 52 41 44 49 49 50 52 53
44 30 39 34 20 21 21 23 32 29 23 18 16 14 13 15 19 17 22 27 29 26 25 27 23 23 23 26 25 30 36 34 26 33 37 35 39 50 44 40 50 53 52 55 56
42 37 39 30 16 16 22 20 26 29 24 20 15 15 16 19 21 19 19 29 28 25 25 27 24 18 20 18 26 25 23 24 33 35 37 33 36 49 51 39 47 52 58 60 59
43 31 35 32 27 24 25 25 27 28 25 20 17 17 20 22 24 23 19 23 24 21 51 35 18 18 11 18 25 30 30 39 40 28 31 31 34 45 46 49 46 50 57 60 63
43 33 39 30 24 25 29 25 25 27 27 24 23 17 20 24 25 25 21 21 26 40 29 26 26 24 18 14 15 18 35 41 41 40 28 31 37 41 48 50 57 55 57 60 62
42 41 43 39 41 26 28 27 21 25 29 26 27 23 21 25 27 24 25 28 26 31 31 29 30 29 25 21 19 17 25 41 39 34 37 35 35 50 55 59 60 56 58 59 60
46 42 43 39 36 35 30 27 26 24 27 30 28 27 24 23 25 24 23 23 25 27 28 32 30 30 28 24 27 26 23 29 32 29 41 38 39 56 55 59 60 61 59 62 59

GFSSW_sfc_dewp_126.txt.gz
Dewpoint
58 58 58 58 58 58 58 58 58 58 58 58 58 58 58 59 58 49 34 37 44 62 56 43 38 40 47 51 54 56 58 54 56 53 59 51 51 48 47 44 51 54 51 52 52
58 57 57 58 58 58 58 58 59 58 58 58 58 58 59 59 49 36 53 61 55 63 33 39 32 42 47 50 53 57 58 56 60 57 53 52 54 47 46 46 52 52 52 52 53
58 58 58 57 57 57 58 58 58 58 58 58 58 58 59 57 46 36 62 62 61 57 36 38 32 43 47 51 56 55 56 58 55 54 53 55 57 57 49 47 48 52 52 52 52
58 58 58 59 58 58 57 57 58 58 58 58 58 58 59 51 35 49 66 63 64 45 38 28 30 38 45 53 57 52 55 55 55 54 54 49 56 57 57 59 56 52 53 52 53
57 57 58 58 58 58 58 57 57 57 57 57 58 58 53 45 37 54 67 60 39 37 33 27 33 42 44 50 55 53 54 55 56 53 51 52 51 59 56 57 52 52 53 52 54
57 57 57 57 58 58 58 58 57 56 56 56 57 58 49 37 39 48 36 30 23 28 22 26 38 43 44 45 44 55 55 55 55 54 53 48 56 55 54 49 49 51 52 54 55
56 56 57 57 57 57 57 56 56 56 57 56 57 52 44 35 37 36 30 28 25 17 16 17 35 43 41 38 46 54 53 55 57 58 57 52 59 56 61 60 48 49 51 55 54
56 56 56 56 56 56 55 55 55 56 58 57 57 50 41 35 38 32 31 26 21 17 19 18 29 39 43 40 39 43 53 51 56 57 57 55 55 58 62 62 52 48 50 53 53
56 55 56 56 55 55 55 55 56 58 57 57 53 49 37 42 32 34 33 32 27 19 20 17 19 32 40 36 31 42 40 46 55 57 57 54 54 61 62 61 56 52 50 52 53
55 56 55 55 55 54 54 54 56 57 56 52 49 43 31 24 25 26 30 30 25 16 14 12 16 26 31 33 28 34 37 42 51 55 55 54 55 54 58 59 61 61 57 53 52
56 56 55 55 55 54 51 46 49 44 47 39 33 33 26 28 28 25 26 26 25 16 11 10 16 22 28 33 31 30 37 42 51 52 50 53 53 57 56 56 61 61 57 54 54
55 54 55 54 54 54 50 40 34 33 31 38 23 25 25 26 23 23 27 22 22 13 12 11 8 13 21 22 27 28 31 31 44 48 46 46 49 54 58 55 55 53 55 60 53
55 55 54 54 53 50 37 35 35 32 32 27 24 23 23 23 23 22 22 22 21 17 10 11 13 12 14 21 28 28 26 30 39 49 48 44 45 45 54 57 56 57 62 63 61
54 54 54 53 50 42 32 36 33 34 31 26 24 26 26 25 19 22 21 23 23 19 19 16 15 18 21 25 23 21 24 26 31 34 35 47 41 44 49 56 56 55 59 59 59
54 54 53 52 49 39 33 32 31 34 28 25 24 27 26 26 24 20 23 25 23 19 20 16 16 19 22 22 21 22 23 25 29 30 32 42 42 39 48 50 54 56 56 58 58
54 53 52 48 50 47 34 30 31 28 24 23 23 21 22 22 19 22 19 22 23 21 19 21 20 21 18 18 19 20 19 22 28 31 30 32 33 31 42 51 55 54 55 57 58
52 52 51 48 43 42 27 28 26 24 25 22 19 19 19 20 20 20 20 20 20 21 20 17 18 19 18 18 19 18 16 21 24 26 28 36 28 39 48 47 54 57 55 56 58
51 50 50 48 44 45 37 28 26 24 23 18 17 17 17 21 20 20 22 21 21 21 19 19 16 17 17 16 18 23 17 18 25 26 29 38 38 43 49 52 53 56 57 55 57
51 46 47 48 48 43 28 23 24 27 24 19 14 16 16 21 21 22 21 21 21 20 23 23 18 18 17 19 18 21 25 21 19 21 21 26 39 45 44 42 39 46 53 55 57
50 45 39 40 42 41 24 23 20 23 24 19 15 16 18 20 19 19 23 21 22 24 26 26 24 20 20 24 25 21 30 30 25 27 24 23 40 44 44 45 49 48 50 55 58
49 41 37 37 37 35 21 18 19 20 26 20 15 17 19 19 21 20 19 25 23 27 27 25 26 22 23 25 25 27 25 31 29 33 31 29 42 46 46 45 51 54 57 54 55
44 37 39 34 28 29 23 18 23 19 29 24 18 15 16 15 16 17 18 24 27 26 25 25 22 23 23 23 26 24 27 31 29 31 31 35 35 45 46 42 54 53 57 58 61
44 39 38 34 24 21 23 19 18 19 26 25 18 15 14 16 19 20 19 30 30 27 28 26 23 20 17 18 23 24 23 25 29 30 35 38 39 44 44 45 46 58 58 57 59
45 36 36 36 29 19 20 19 19 21 26 26 20 16 16 17 21 24 18 23 24 22 52 36 23 21 15 19 16 23 26 29 30 30 32 35 37 43 45 43 43 50 57 57 59
46 37 35 35 33 27 24 26 25 20 26 29 24 17 17 21 23 23 22 21 23 41 26 19 21 19 17 17 16 14 13 18 31 32 33 35 38 39 46 46 53 54 59 58 59
44 42 41 39 38 37 32 26 27 24 27 26 26 19 19 23 25 25 25 27 25 28 30 24 26 28 25 20 18 17 17 15 27 32 33 33 41 54 54 53 53 58 57 58 59
49 47 43 39 36 34 35 25 24 26 25 28 26 25 22 20 21 25 24 24 25 29 29 30 28 30 27 25 25 23 24 28 32 35 35 34 39 55 50 49 51 60 62 62 62

GFSSW_sfc_dewp_129.txt.gz
Dewpoint
58 58 58 58 58 58 59 59 59 59 59 59 59 59 59 60 59 51 42 43 48 60 60 33 42 36 40 41 52 65 58 54 56 56 56 53 51 50 52 52 52 54 52 53 57
59 59 59 59 59 58 58 58 58 59 59 59 59 59 59 59 53 42 50 61 62 59 30 31 39 37 39 45 53 62 55 55 59 58 54 51 56 57 50 51 52 53 53 53 54
57 57 58 58 59 59 59 58 58 58 58 58 59 59 59 58 50 39 64 62 62 57 30 33 36 36 38 51 58 58 57 56 56 57 53 54 55 57 52 52 51 50 50 52 54
57 57 57 58 58 59 59 59 58 58 58 58 58 58 59 55 41 44 65 63 63 44 37 37 31 30 34 55 56 56 57 58 57 57 53 53 57 55 54 56 55 52 52 52 53
57 57 57 57 57 57 58 59 58 57 57 57 57 58 55 49 41 55 68 62 43 37 39 36 28 31 38 54 57 56 53 58 57 53 50 54 52 57 58 54 54 52 52 52 53
56 56 56 56 57 57 57 56 56 56 57 57 57 58 54 40 45 53 46 37 29 32 31 31 23 32 40 47 54 56 54 56 57 53 51 51 57 55 61 60 55 52 52 53 54
55 55 56 56 56 56 56 56 56 56 57 57 57 54 46 42 43 47 32 28 25 25 24 21 17 28 39 42 54 53 54 57 57 57 57 56 56 58 60 61 59 52 52 54 55
56 57 57 56 56 56 55 55 56 56 58 58 57 52 47 43 39 32 30 28 26 21 17 20 20 28 36 41 44 52 52 53 57 57 60 55 54 59 57 58 58 59 53 55 55
56 56 56 56 56 55 55 55 56 57 57 57 54 51 44 45 36 35 33 28 24 21 21 19 17 20 28 35 36 36 43 53 55 58 58 56 55 59 58 58 61 58 55 53 54
56 55 55 55 55 55 54 55 55 55 58 53 50 46 46 27 28 29 33 32 29 19 19 17 13 16 25 31 30 31 41 47 51 55 56 54 55 57 58 59 61 53 59 57 53
54 55 55 55 55 54 52 44 49 47 47 42 42 40 31 29 27 25 26 27 28 22 15 13 10 16 21 25 33 35 43 50 54 56 55 53 55 56 57 59 60 56 55 57 54
55 55 55 54 54 53 52 39 40 33 30 37 39 36 27 26 24 23 27 24 25 23 15 13 7 13 20 23 28 28 33 48 52 53 48 53 53 56 56 57 59 57 51 57 59
55 55 54 54 53 52 44 39 37 34 32 32 35 27 22 21 21 22 25 25 22 21 15 12 12 10 9 12 18 28 29 34 48 49 48 48 44 52 57 56 58 55 53 59 60
55 55 54 52 49 46 43 39 36 32 32 32 24 24 24 23 22 22 21 23 23 22 18 12 12 13 11 18 24 28 27 26 48 46 35 45 41 44 53 57 55 56 55 56 57
55 54 53 52 48 46 43 41 30 32 29 29 24 27 25 24 21 22 21 21 21 23 21 19 16 20 24 23 25 23 24 26 32 31 30 41 41 43 52 55 56 55 57 60 55
54 53 52 49 49 50 48 47 31 30 27 24 25 25 24 25 22 21 21 23 23 22 22 19 21 21 21 22 20 21 20 23 25 29 30 31 42 40 49 55 56 56 59 59 54
53 52 51 49 43 39 39 37 28 27 29 23 23 20 21 22 20 20 19 19 21 20 21 20 20 21 21 17 19 18 16 19 24 24 29 32 37 45 47 56 57 56 57 58 58
52 50 51 49 48 46 45 32 27 25 23 25 21 18 19 20 20 20 21 19 22 21 21 20 16 18 18 18 21 19 17 18 20 28 30 32 39 45 51 53 58 58 57 56 56
51 49 47 48 49 47 44 30 27 27 26 24 16 18 18 18 23 22 22 22 21 20 31 25 23 18 17 16 16 15 22 23 18 19 21 33 43 45 45 48 52 56 56 56 57
50 48 46 43 48 46 41 30 23 22 21 22 21 17 18 19 20 22 24 23 24 26 26 26 24 18 17 21 22 18 25 30 33 25 26 39 44 44 44 50 53 56 58 57 57
50 46 42 41 44 43 36 28 21 19 18 19 22 20 17 20 21 20 21 24 26 28 27 35 30 27 23 23 24 24 26 31 30 31 32 31 41 45 47 48 53 57 60 59 60
46 41 40 38 38 39 34 32 30 19 18 16 23 22 20 21 24 24 28 28 26 28 27 31 22 25 25 24 25 26 27 30 30 29 34 34 38 45 47 50 53 57 59 59 61
46 44 44 38 31 29 29 26 26 22 19 17 24 24 20 21 24 22 28 30 29 27 30 27 28 24 20 17 21 25 27 39 32 32 36 33 37 44 45 47 52 57 59 59 59
47 42 41 42 37 33 30 25 21 21 19 19 21 25 23 23 24 28 28 27 25 28 50 35 23 25 20 19 17 18 17 21 32 29 31 34 37 42 44 52 56 58 59 53 58
48 43 41 39 39 38 38 37 30 23 27 25 30 25 23 23 25 25 29 24 23 45 27 20 21 23 19 17 20 20 18 19 17 33 30 31 35 47 51 48 51 60 61 60 58
47 46 45 42 40 38 37 38 34 23 26 28 31 29 25 29 27 28 25 30 30 30 28 23 24 29 29 25 22 19 18 18 19 28 33 34 41 53 52 52 51 59 60 61 62
50 50 47 43 40 37 36 36 36 38 41 38 29 30 27 25 25 25 28 30 31 32 32 33 31 35 29 30 26 24 33 32 32 34 36 33 40 54 50 51 56 59 60 61 61

GFSSW_sfc_dewp_132.txt.gz
Dewpoint
57 58 58 58 59 59 59 59 59 59 59 59 59 59 59 60 59 54 40 40 47 63 59 31 36 40 37 45 62 63 56 54 54 54 56 55 55 53 53 51 51 53 54 58 64
57 57 57 58 58 58 59 59 59 59 58 58 59 59 59 60 55 47 50 63 64 60 29 28 35 40 37 54 63 62 55 53 57 57 55 55 56 56 51 51 51 54 57 62 64
57 57 57 57 58 58 58 58 59 59 58 58 58 58 59 59 50 45 64 64 62 57 28 30 33 36 36 54 62 62 56 56 57 57 56 55 56 55 53 53 51 53 56 59 64
57 57 57 57 57 57 57 57 57 57 58 58 58 58 59 56 41 45 67 66 62 46 36 37 37 32 34 54 57 57 58 57 57 59 54 54 58 57 57 58 53 53 55 55 59
56 56 56 56 57 57 57 57 56 56 56 57 57 58 54 47 42 55 67 64 48 37 40 37 36 32 32 53 55 55 57 58 59 58 54 55 55 57 58 58 53 52 53 53 56
56 57 57 56 56 56 56 56 56 56 56 57 58 57 52 40 46 58 47 44 33 34 33 37 36 27 25 50 55 56 57 58 56 52 53 53 58 56 59 61 53 51 52 53 54
56 57 56 56 56 56 56 56 56 56 57 58 58 55 48 42 45 53 39 33 25 31 28 29 27 19 30 41 55 56 57 59 57 56 55 57 57 57 60 59 56 55 52 53 54
55 56 55 55 56 56 56 56 56 57 57 59 57 53 41 47 45 45 37 29 28 25 26 22 19 20 34 38 52 54 56 53 56 55 59 54 50 59 61 58 57 59 56 54 55
55 55 55 56 56 56 55 55 56 57 59 57 52 51 44 51 35 38 31 29 28 25 21 19 15 19 23 31 35 48 48 53 52 55 57 55 52 57 59 58 58 60 53 54 55
56 56 56 55 55 55 54 55 55 55 57 54 51 44 44 36 31 35 33 33 27 24 20 20 13 13 16 28 30 33 47 51 51 55 58 55 53 56 57 58 59 60 56 54 54
56 56 55 55 54 53 52 45 42 44 50 37 40 37 38 43 28 27 29 30 28 21 14 17 8 8 13 21 28 34 42 48 51 54 56 54 53 56 55 56 56 61 55 56 53
56 56 55 54 54 53 51 34 38 39 31 39 40 40 38 37 26 25 26 24 28 24 22 14 7 8 14 18 20 23 44 52 56 57 54 54 53 55 56 54 54 59 55 55 57
56 55 55 54 53 51 44 39 39 35 31 31 34 37 36 31 24 24 25 24 23 23 21 13 12 10 8 9 11 15 36 51 53 56 55 53 50 55 55 56 54 59 56 56 57
56 55 54 53 46 47 42 44 45 38 30 31 31 34 25 22 22 24 26 25 24 20 20 16 15 12 11 8 15 25 29 48 51 49 43 45 38 45 55 54 55 57 56 56 58
56 55 53 52 47 47 43 47 41 33 27 33 29 27 23 23 23 22 22 23 20 19 24 21 19 16 16 21 24 24 24 36 48 38 31 43 40 42 51 54 54 56 57 56 56
55 53 53 49 48 48 48 44 34 28 26 28 26 23 23 24 25 22 20 24 24 22 22 22 22 20 20 23 24 24 19 22 26 29 24 28 40 38 53 54 55 56 58 56 55
53 52 51 49 44 45 45 36 24 25 29 25 23 24 24 24 22 19 19 19 19 22 19 21 19 21 21 20 19 17 18 17 19 21 23 28 37 35 46 55 56 56 56 56 58
51 51 51 50 49 48 44 26 25 25 23 24 24 22 20 23 21 19 18 16 19 21 20 19 17 19 20 18 18 19 16 16 15 25 20 31 38 44 51 56 57 58 57 57 58
50 49 48 49 49 46 41 30 24 26 26 19 20 19 19 19 20 20 19 17 19 21 19 22 23 20 17 16 16 16 18 17 15 28 21 32 42 43 50 53 57 58 58 57 58
49 48 48 48 48 45 39 33 26 24 19 18 19 20 17 17 20 20 21 22 21 22 25 25 22 21 18 17 20 14 19 23 29 24 29 40 43 41 44 52 55 55 56 56 57
48 45 45 48 44 40 36 35 30 26 24 17 18 15 15 15 19 19 18 23 26 27 26 32 24 24 22 22 21 22 24 29 29 31 30 31 36 45 47 47 52 56 58 58 59
47 41 43 42 36 38 34 34 34 28 31 27 19 16 17 18 20 19 27 28 29 27 25 31 22 22 22 24 23 24 22 26 25 24 32 33 33 45 46 51 51 54 57 58 62
45 45 46 38 30 29 30 29 31 28 27 24 20 20 20 19 20 28 30 30 28 28 25 33 25 22 20 18 15 17 25 37 31 32 32 30 34 44 52 52 53 55 58 58 59
46 42 41 40 38 39 37 36 35 35 30 24 23 22 19 20 20 28 29 27 27 28 52 35 23 23 19 18 17 14 16 19 30 28 29 33 38 42 48 53 58 59 60 60 60
47 44 44 40 41 40 38 36 35 35 34 28 27 32 29 18 21 24 27 24 27 48 23 20 17 20 20 19 19 21 20 22 17 21 29 30 35 42 48 50 57 60 61 61 60
46 46 46 44 42 40 38 36 36 37 37 38 38 39 40 22 18 21 23 24 22 26 21 18 15 22 22 24 26 25 31 29 32 33 33 33 40 50 51 51 57 59 61 61 61
49 49 47 44 42 41 38 38 37 40 39 39 40 43 37 30 26 25 23 26 25 23 27 23 20 30 28 30 27 23 31 32 33 34 34 32 34 53 52 51 56 58 60 60 60

GFSSW_sfc_dewp_135.txt.gz
Dewpoint
57 57 57 57 58 58 58 58 59 59 59 59 59 59 59 59 59 55 34 33 48 62 60 32 40 39 37 61 60 62 55 53 53 54 55 57 52 53 54 52 52 54 54 59 63
57 57 57 57 57 57 57 57 58 58 58 58 58 59 59 59 55 47 48 61 65 65 31 26 36 40 37 62 62 60 53 53 57 56 54 57 57 56 52 52 53 54 59 62 63
57 57 57 57 57 57 57 57 57 57 56 57 58 58 58 59 48 39 63 65 68 62 27 29 32 35 39 59 61 61 55 55 53 56 56 55 57 57 51 51 53 57 60 62 62
56 56 56 56 56 57 57 57 57 56 57 57 57 58 58 55 40 46 68 67 66 43 31 35 36 34 35 55 60 58 59 57 56 59 57 56 59 56 55 54 55 60 62 61 61
56 56 56 56 56 56 57 56 56 56 57 57 58 58 54 41 39 58 69 65 50 37 36 35 35 33 31 53 56 56 58 58 60 57 54 56 55 59 58 54 57 60 62 61 60
55 55 55 55 55 56 57 57 57 56 57 57 58 57 50 35 43 61 51 46 33 32 35 37 35 30 26 45 53 56 59 58 57 57 54 55 57 57 60 59 55 57 59 61 61
56 56 55 56 56 56 56 56 56 56 57 58 58 55 46 32 45 53 38 30 30 30 28 32 32 22 21 36 57 57 56 57 57 57 53 58 56 56 60 56 52 54 54 56 59
57 57 57 56 56 56 56 55 55 56 57 59 58 52 31 40 45 46 41 30 27 29 27 26 23 19 30 37 56 56 55 50 55 55 59 53 49 57 61 58 56 55 53 53 55
57 57 57 56 56 55 55 55 56 57 58 58 51 50 42 52 41 42 37 30 28 27 27 25 17 18 25 31 38 51 49 51 51 56 58 51 49 55 60 58 56 58 59 53 54
57 57 56 56 55 55 54 54 56 57 57 54 52 41 41 38 30 37 36 30 30 24 23 18 13 13 17 28 34 38 48 52 49 55 54 54 53 55 58 58 58 58 58 54 54
57 57 56 55 55 53 52 44 39 38 51 32 32 33 34 37 30 31 32 31 28 20 17 15 7 5 11 23 30 36 34 41 52 55 56 56 53 55 57 56 57 59 57 54 54
57 56 55 55 54 53 50 30 37 40 35 37 41 39 38 38 34 26 27 26 25 24 17 14 10 10 11 15 20 21 23 41 55 56 56 55 54 55 55 54 54 56 58 56 54
57 56 55 54 53 49 44 41 42 44 33 31 35 36 35 37 35 30 25 25 23 23 21 17 14 14 10 8 9 11 17 46 50 56 56 53 51 53 56 56 54 55 60 56 55
56 56 54 53 45 47 44 44 45 40 29 30 31 32 32 26 27 27 25 24 25 20 21 19 20 16 12 8 8 7 19 38 54 53 47 50 42 41 53 54 54 53 58 55 57
56 55 53 52 46 45 40 46 44 33 23 32 31 32 26 21 23 23 26 23 22 21 21 21 22 18 13 12 15 15 25 49 53 50 37 43 40 39 52 53 53 53 55 58 54
55 53 52 49 47 47 48 46 32 26 23 29 31 23 21 23 23 22 22 22 23 21 23 21 23 20 19 21 23 21 20 23 28 30 25 26 40 32 49 52 54 54 54 57 55
53 52 51 50 44 46 45 31 24 24 26 28 25 23 21 22 24 20 19 19 19 18 19 21 20 20 21 19 19 18 18 17 18 19 20 30 37 34 38 50 54 55 55 56 56
51 50 50 50 50 48 40 24 24 22 24 23 22 24 21 23 23 19 18 17 19 20 20 18 18 19 21 18 17 18 16 17 15 18 21 29 30 42 48 52 58 57 57 57 57
50 48 48 49 50 45 35 21 19 24 21 17 17 22 22 21 23 20 18 17 17 20 18 19 22 23 19 18 17 19 17 17 16 26 21 28 41 42 49 52 56 57 57 57 58
48 46 47 49 48 43 35 29 28 26 23 18 18 18 16 18 20 19 19 20 19 21 22 23 21 24 20 17 18 15 22 25 27 23 23 35 41 38 45 50 52 53 56 57 59
47 43 43 49 44 39 34 35 33 32 29 25 24 20 16 17 17 19 19 21 21 25 23 25 23 22 19 18 16 21 21 27 28 30 28 32 37 45 45 46 50 53 57 58 58
45 33 44 44 36 37 33 34 34 27 30 30 26 22 17 19 18 19 20 25 28 26 23 27 22 22 20 24 20 23 22 26 21 20 32 30 31 41 45 49 51 56 58 59 62
42 44 47 42 36 30 35 35 32 30 29 28 22 23 22 19 19 23 28 28 28 25 24 25 23 20 19 19 16 15 22 32 29 32 33 30 32 44 51 52 52 57 57 56 58
44 42 43 43 39 39 38 36 36 37 36 37 26 27 34 21 20 23 28 26 26 28 51 36 24 20 17 19 16 17 21 22 28 27 29 30 35 42 51 53 55 58 59 57 60
45 43 44 41 42 41 39 37 36 36 38 39 37 38 39 37 19 26 28 24 26 46 23 19 17 22 21 20 17 21 24 28 19 21 23 26 38 40 46 52 56 59 60 60 60
45 44 45 44 43 41 39 36 36 38 38 37 38 38 41 40 26 21 24 25 21 25 18 17 15 20 18 21 28 26 31 31 31 32 33 36 39 45 50 50 55 57 60 59 59
47 47 46 43 42 40 39 42 41 41 39 40 39 39 42 41 43 43 43 24 22 23 23 18 23 23 24 30 25 24 27 31 33 34 33 30 32 51 51 50 51 55 58 58 58